Observation data for Welch on 11/22/2019      Previous  Date  Next       Current Mesonet Observations  Soil Data  Daily Summary Page  Observations in Plain Language
KWE2 220600Z 02010KT 05/05 A3012 RMK A01 T00530053  RH  100%=      5-min Rain = 0
KWE2 220601Z 02009KT 05/05 A3012 RMK A01 T00530053  RH  100%=      5-min Rain = 0
KWE2 220602Z 02009KT 05/05 A3012 RMK A01 T00530053  RH  100%=      5-min Rain = 0
KWE2 220603Z 02008KT 05/05 A3012 RMK A01 T00530053  RH  100%=      5-min Rain = 0
KWE2 220604Z 01008KT 05/05 A3012 RMK A01 T00520053  RH  100%=      5-min Rain = 0
KWE2 220605Z 02008KT 05/05 A3012 RMK A01 T00520053  RH  100%=      5-min Rain = 0
KWE2 220606Z 02010KT 05/05 A3012 RMK A01 T00530053  RH  100%=      5-min Rain = 0
KWE2 220607Z 02009KT 05/05 A3012 RMK A01 T00530053  RH  100%=      5-min Rain = 0
KWE2 220608Z 03008KT 05/05 A3012 RMK A01 T00520053  RH  100%=      5-min Rain = 0
KWE2 220609Z 03007KT 05/05 A3012 RMK A01 T00520053  RH  100%=      5-min Rain = 0
KWE2 220610Z 03007KT 05/05 A3012 RMK A01 T00530053  RH  100%=      5-min Rain = 0
KWE2 220611Z 02006KT 05/05 A3012 RMK A01 T00530053  RH  100%=      5-min Rain = 0
KWE2 220612Z 03007KT 05/05 A3012 RMK A01 T00530053  RH  100%=      5-min Rain = 0
KWE2 220613Z 03007KT 05/05 A3012 RMK A01 T00520052  RH  100%=      5-min Rain = 0
KWE2 220614Z 03008KT 05/05 A3012 RMK A01 T00520052  RH  100%=      5-min Rain = 0
KWE2 220615Z 04007KT 05/05 A3012 RMK A01 T00520052  RH  100%=      5-min Rain = 0
KWE2 220616Z 04005KT 05/05 A3012 RMK A01 T00520052  RH  100%=      5-min Rain = 0
KWE2 220617Z 04005KT 05/05 A3012 RMK A01 T00520052  RH  100%=      5-min Rain = 0
KWE2 220618Z 04007KT 05/05 A3012 RMK A01 T00520052  RH  100%=      5-min Rain = 0
KWE2 220619Z 05007KT 05/05 A3012 RMK A01 T00520052  RH  100%=      5-min Rain = 0
KWE2 220620Z 04008KT 05/05 A3012 RMK A01 T00520052  RH  100%=      5-min Rain = 0
KWE2 220621Z 04008KT 05/05 A3012 RMK A01 T00520052  RH  100%=      5-min Rain = 0
KWE2 220622Z 04009KT 05/05 A3012 RMK A01 T00510051  RH  100%=      5-min Rain = 0
KWE2 220623Z 04009KT 05/05 A3012 RMK A01 T00510051  RH  100%=      5-min Rain = 0
KWE2 220624Z 04010KT 05/05 A3012 RMK A01 T00510051  RH  100%=      5-min Rain = 0
KWE2 220625Z 04010KT 05/05 A3011 RMK A01 T00510051  RH  100%=      5-min Rain = 0
KWE2 220626Z 04009KT 05/05 A3011 RMK A01 T00510051  RH  100%=      5-min Rain = 0
KWE2 220627Z 05010KT 05/05 A3011 RMK A01 T00500050  RH  100%=      5-min Rain = 0
KWE2 220628Z 04007KT 05/05 A3012 RMK A01 T00500050  RH  100%=      5-min Rain = 0
KWE2 220629Z 04005KT 05/05 A3013 RMK A01 T00500050  RH  100%=      5-min Rain = 0
KWE2 220630Z 04005KT 05/05 A3013 RMK A01 T00500050  RH  100%=      5-min Rain = 0.01
KWE2 220631Z 04006KT 05/05 A3013 RMK A01 T00510051  RH  100%=      5-min Rain = 0
KWE2 220632Z 05007KT 05/05 A3013 RMK A01 T00500050  RH  100%=      5-min Rain = 0
KWE2 220633Z 05005KT 05/05 A3013 RMK A01 T00500050  RH  100%=      5-min Rain = 0
KWE2 220634Z 05006KT 05/05 A3013 RMK A01 T00500050  RH  100%=      5-min Rain = 0
KWE2 220635Z 04007KT 05/05 A3012 RMK A01 T00500050  RH  100%=      5-min Rain = 0
KWE2 220636Z 04007KT 05/05 A3012 RMK A01 T00500050  RH  100%=      5-min Rain = 0
KWE2 220637Z 04007KT 05/05 A3012 RMK A01 T00500050  RH  100%=      5-min Rain = 0.01
KWE2 220638Z 05006KT 05/05 A3013 RMK A01 T00500050  RH  100%=      5-min Rain = 0
KWE2 220639Z 06004KT 05/05 A3013 RMK A01 T00500050  RH  100%=      5-min Rain = 0
KWE2 220640Z 06005KT 05/05 A3013 RMK A01 T00500050  RH  100%=      5-min Rain = 0
KWE2 220641Z 06004KT 05/05 A3013 RMK A01 T00500050  RH  100%=      5-min Rain = 0
KWE2 220642Z 06005KT 05/05 A3013 RMK A01 T00490049  RH  100%=      5-min Rain = 0
KWE2 220643Z 06006KT 05/05 A3012 RMK A01 T00490049  RH  100%=      5-min Rain = 0
KWE2 220644Z 05006KT 05/05 A3012 RMK A01 T00490049  RH  100%=      5-min Rain = 0
KWE2 220645Z 06006KT 05/05 A3012 RMK A01 T00490049  RH  100%=      5-min Rain = 0
KWE2 220646Z 06006KT 05/05 A3012 RMK A01 T00500050  RH  100%=      5-min Rain = 0
KWE2 220647Z 05006KT 05/05 A3011 RMK A01 T00500050  RH  100%=      5-min Rain = 0
KWE2 220648Z 05006KT 05/05 A3011 RMK A01 T00500050  RH  100%=      5-min Rain = 0
KWE2 220649Z 05005KT 05/05 A3011 RMK A01 T00500050  RH  100%=      5-min Rain = 0
KWE2 220650Z 05005KT 05/05 A3011 RMK A01 T00500050  RH  100%=      5-min Rain = 0
KWE2 220651Z 04006KT 05/05 A3012 RMK A01 T00500050  RH  100%=      5-min Rain = 0
KWE2 220652Z 03005KT 05/05 A3012 RMK A01 T00500050  RH  100%=      5-min Rain = 0
KWE2 220653Z 03005KT 05/05 A3012 RMK A01 T00500050  RH  100%=      5-min Rain = 0
KWE2 220654Z 03005KT 05/05 A3012 RMK A01 T00500050  RH  100%=      5-min Rain = 0
KWE2 220655Z 03005KT 05/05 A3012 RMK A01 T00500050  RH  100%=      5-min Rain = 0
KWE2 220656Z 03005KT 05/05 A3012 RMK A01 T00500050  RH  100%=      5-min Rain = 0
KWE2 220657Z 03005KT 05/05 A3012 RMK A01 T00500050  RH  100%=      5-min Rain = 0
KWE2 220658Z 03005KT 05/05 A3012 RMK A01 T00500050  RH  100%=      5-min Rain = 0
KWE2 220659Z 03005KT 05/05 A3012 RMK A01 T00500050  RH  100%=      5-min Rain = 0
KWE2 220700Z 03006KT 05/05 A3012 RMK A01 T00500050  RH  100%=      5-min Rain = 0
KWE2 220701Z 04006KT 05/05 A3012 RMK A01 T00500050  RH  100%=      5-min Rain = 0
KWE2 220702Z 04007KT 05/05 A3011 RMK A01 T00500050  RH  100%=      5-min Rain = 0
KWE2 220703Z 05006KT 05/05 A3011 RMK A01 T00500050  RH  100%=      5-min Rain = 0
KWE2 220704Z 05006KT 05/05 A3012 RMK A01 T00500050  RH  100%=      5-min Rain = 0
KWE2 220705Z 05006KT 05/05 A3012 RMK A01 T00500050  RH  100%=      5-min Rain = 0
KWE2 220706Z 05005KT 05/05 A3012 RMK A01 T00500050  RH  100%=      5-min Rain = 0
KWE2 220707Z 04005KT 05/05 A3012 RMK A01 T00500050  RH  100%=      5-min Rain = 0
KWE2 220708Z 04005KT 05/05 A3011 RMK A01 T00500050  RH  100%=      5-min Rain = 0
KWE2 220709Z 04005KT 05/05 A3011 RMK A01 T00500050  RH  100%=      5-min Rain = 0
KWE2 220710Z 04006KT 05/05 A3011 RMK A01 T00500050  RH  100%=      5-min Rain = 0
KWE2 220711Z 04005KT 05/05 A3011 RMK A01 T00500050  RH  100%=      5-min Rain = 0
KWE2 220712Z 04005KT 05/05 A3011 RMK A01 T00500050  RH  100%=      5-min Rain = 0
KWE2 220713Z 04005KT 05/05 A3011 RMK A01 T00500050  RH  100%=      5-min Rain = 0
KWE2 220714Z 05006KT 05/05 A3011 RMK A01 T00500050  RH  100%=      5-min Rain = 0
KWE2 220715Z 05006KT 05/05 A3011 RMK A01 T00490049  RH  100%=      5-min Rain = 0
KWE2 220716Z 05006KT 05/05 A3011 RMK A01 T00490049  RH  100%=      5-min Rain = 0
KWE2 220717Z 05006KT 05/05 A3011 RMK A01 T00490049  RH  100%=      5-min Rain = 0
KWE2 220718Z 05005KT 05/05 A3011 RMK A01 T00490049  RH  100%=      5-min Rain = 0
KWE2 220719Z 05006KT 05/05 A3011 RMK A01 T00490049  RH  100%=      5-min Rain = 0
KWE2 220720Z 05006KT 05/05 A3011 RMK A01 T00490049  RH  100%=      5-min Rain = 0
KWE2 220721Z 06006KT 05/05 A3011 RMK A01 T00490049  RH  100%=      5-min Rain = 0
KWE2 220722Z 05008KT 05/05 A301 RMK A01 T00490049  RH  100%=      5-min Rain = 0
KWE2 220723Z 05009KT 05/05 A301 RMK A01 T00490049  RH  100%=      5-min Rain = 0
KWE2 220724Z 05007KT 05/05 A301 RMK A01 T00490049  RH  100%=      5-min Rain = 0
KWE2 220725Z 06006KT 05/05 A301 RMK A01 T00490049  RH  100%=      5-min Rain = 0
KWE2 220726Z 06007KT 05/05 A3009 RMK A01 T00480049  RH  100%=      5-min Rain = 0
KWE2 220727Z 06007KT 05/05 A3009 RMK A01 T00490049  RH  100%=      5-min Rain = 0
KWE2 220728Z 06008KT 05/05 A3009 RMK A01 T00480048  RH  100%=      5-min Rain = 0
KWE2 220729Z 06005KT 05/05 A3009 RMK A01 T00480048  RH  100%=      5-min Rain = 0
KWE2 220730Z 06008KT 05/05 A3009 RMK A01 T00480048  RH  100%=      5-min Rain = 0
KWE2 220731Z 06007KT 05/05 A3009 RMK A01 T00480048  RH  100%=      5-min Rain = 0
KWE2 220732Z 06007KT 05/05 A3009 RMK A01 T00480048  RH  100%=      5-min Rain = 0
KWE2 220733Z 07007KT 05/05 A3009 RMK A01 T00470047  RH  100%=      5-min Rain = 0
KWE2 220734Z 07007KT 05/05 A3009 RMK A01 T00470047  RH  100%=      5-min Rain = 0
KWE2 220735Z 07007KT 05/05 A3009 RMK A01 T00470047  RH  100%=      5-min Rain = 0
KWE2 220736Z 07006KT 05/05 A3009 RMK A01 T00470047  RH  100%=      5-min Rain = 0
KWE2 220737Z 08008KT 05/05 A3009 RMK A01 T00470047  RH  100%=      5-min Rain = 0
KWE2 220738Z 07008KT 05/05 A3009 RMK A01 T00470047  RH  100%=      5-min Rain = 0
KWE2 220739Z 07005KT 05/05 A3009 RMK A01 T00470047  RH  100%=      5-min Rain = 0
KWE2 220740Z 07005KT 05/05 A301 RMK A01 T00470047  RH  100%=      5-min Rain = 0
KWE2 220741Z 07003KT 05/05 A301 RMK A01 T00470047  RH  100%=      5-min Rain = 0
KWE2 220742Z 05002KT 05/05 A301 RMK A01 T00470047  RH  100%=      5-min Rain = 0
KWE2 220743Z 05004KT 05/05 A3009 RMK A01 T00470047  RH  100%=      5-min Rain = 0
KWE2 220744Z 06005KT 05/05 A3009 RMK A01 T00470047  RH  100%=      5-min Rain = 0
KWE2 220745Z 06007KT 05/05 A3009 RMK A01 T00470047  RH  100%=      5-min Rain = 0
KWE2 220746Z 06009KT 05/05 A3008 RMK A01 T00470047  RH  100%=      5-min Rain = 0
KWE2 220747Z 06009KT 05/05 A3008 RMK A01 T00470047  RH  100%=      5-min Rain = 0
KWE2 220748Z 06008KT 05/05 A3008 RMK A01 T00470047  RH  100%=      5-min Rain = 0
KWE2 220749Z 07006KT 05/05 A3009 RMK A01 T00460046  RH  100%=      5-min Rain = 0
KWE2 220750Z 07006KT 05/05 A3009 RMK A01 T00460046  RH  100%=      5-min Rain = 0
KWE2 220751Z 08005KT 05/05 A3009 RMK A01 T00460046  RH  100%=      5-min Rain = 0
KWE2 220752Z 07004KT 05/05 A3009 RMK A01 T00460046  RH  100%=      5-min Rain = 0
KWE2 220753Z 06003KT 05/05 A3009 RMK A01 T00460046  RH  100%=      5-min Rain = 0
KWE2 220754Z 04003KT 05/05 A3009 RMK A01 T00460046  RH  100%=      5-min Rain = 0
KWE2 220755Z 05005KT 05/05 A3009 RMK A01 T00460046  RH  100%=      5-min Rain = 0
KWE2 220801Z 06006KT 05/05 A3008 RMK A01 T00470047  RH  100%=      5-min Rain = 0
KWE2 220802Z 07005KT 05/05 A3008 RMK A01 T00470047  RH  100%=      5-min Rain = 0
KWE2 220803Z 07006KT 05/05 A3008 RMK A01 T00470047  RH  100%=      5-min Rain = 0
KWE2 220804Z 09007KT 05/05 A3008 RMK A01 T00470047  RH  100%=      5-min Rain = 0
KWE2 220805Z 08006KT 05/05 A3008 RMK A01 T00470047  RH  100%=      5-min Rain = 0
KWE2 220806Z 08004KT 05/05 A3008 RMK A01 T00470047  RH  100%=      5-min Rain = 0
KWE2 220807Z 09006KT 05/05 A3008 RMK A01 T00470047  RH  100%=      5-min Rain = 0
KWE2 220808Z 09006KT 05/05 A3008 RMK A01 T00470047  RH  100%=      5-min Rain = 0
KWE2 220809Z 08006KT 05/05 A3008 RMK A01 T00470047  RH  100%=      5-min Rain = 0
KWE2 220810Z 08006KT 05/05 A3008 RMK A01 T00470047  RH  100%=      5-min Rain = 0
KWE2 220811Z 08006KT 05/05 A3008 RMK A01 T00470047  RH  100%=      5-min Rain = 0
KWE2 220812Z 08005KT 05/05 A3008 RMK A01 T00470047  RH  100%=      5-min Rain = 0
KWE2 220813Z 08005KT 05/05 A3008 RMK A01 T00470047  RH  100%=      5-min Rain = 0
KWE2 220814Z 09006KT 05/05 A3008 RMK A01 T00470047  RH  100%=      5-min Rain = 0
KWE2 220815Z 09007KT 05/05 A3008 RMK A01 T00470047  RH  100%=      5-min Rain = 0
KWE2 220816Z 09007KT 05/05 A3008 RMK A01 T00470047  RH  100%=      5-min Rain = 0
KWE2 220817Z 09006KT 05/05 A3008 RMK A01 T00470047  RH  100%=      5-min Rain = 0
KWE2 220818Z 09006KT 05/05 A3008 RMK A01 T00470047  RH  100%=      5-min Rain = 0
KWE2 220819Z 09006KT 05/05 A3008 RMK A01 T00470047  RH  100%=      5-min Rain = 0
KWE2 220820Z 08006KT 05/05 A3008 RMK A01 T00470047  RH  100%=      5-min Rain = 0
KWE2 220821Z 08006KT 05/05 A3008 RMK A01 T00470047  RH  100%=      5-min Rain = 0
KWE2 220822Z 08005KT 05/05 A3008 RMK A01 T00470047  RH  100%=      5-min Rain = 0
KWE2 220823Z 09005KT 05/05 A3009 RMK A01 T00470047  RH  100%=      5-min Rain = 0
KWE2 220824Z 08005KT 05/05 A3009 RMK A01 T00470047  RH  100%=      5-min Rain = 0
KWE2 220825Z 09005KT 05/05 A3008 RMK A01 T00470047  RH  100%=      5-min Rain = 0
KWE2 220826Z 08006KT 05/05 A3008 RMK A01 T00470047  RH  100%=      5-min Rain = 0
KWE2 220827Z 08006KT 05/05 A3008 RMK A01 T00470047  RH  100%=      5-min Rain = 0
KWE2 220828Z 08005KT 05/05 A3008 RMK A01 T00470047  RH  100%=      5-min Rain = 0
KWE2 220829Z 08005KT 05/05 A3009 RMK A01 T00470047  RH  100%=      5-min Rain = 0
KWE2 220830Z 09006KT 05/05 A3009 RMK A01 T00470047  RH  100%=      5-min Rain = 0
KWE2 220831Z 08005KT 05/05 A3009 RMK A01 T00470047  RH  100%=      5-min Rain = 0
KWE2 220832Z 09005KT 05/05 A3009 RMK A01 T00470047  RH  100%=      5-min Rain = 0
KWE2 220833Z 09005KT 05/05 A3009 RMK A01 T00470047  RH  100%=      5-min Rain = 0
KWE2 220834Z 09007KT 05/05 A3009 RMK A01 T00460046  RH  100%=      5-min Rain = 0
KWE2 220835Z 09006KT 05/05 A3009 RMK A01 T00460046  RH  100%=      5-min Rain = 0
KWE2 220836Z 09005KT 05/05 A3009 RMK A01 T00460046  RH  100%=      5-min Rain = 0
KWE2 220837Z 06004KT 05/05 A3009 RMK A01 T00460046  RH  100%=      5-min Rain = 0
KWE2 220838Z 07004KT 05/05 A301 RMK A01 T00460046  RH  100%=      5-min Rain = 0
KWE2 220839Z 05003KT 05/05 A301 RMK A01 T00460046  RH  100%=      5-min Rain = 0
KWE2 220840Z 06005KT 05/05 A301 RMK A01 T00460046  RH  100%=      5-min Rain = 0
KWE2 220841Z 06005KT 05/05 A301 RMK A01 T00460046  RH  100%=      5-min Rain = 0
KWE2 220842Z 07003KT 05/05 A301 RMK A01 T00450045  RH  100%=      5-min Rain = 0
KWE2 220843Z 06004KT 05/05 A301 RMK A01 T00450045  RH  100%=      5-min Rain = 0
KWE2 220844Z 07004KT 05/05 A301 RMK A01 T00450045  RH  100%=      5-min Rain = 0
KWE2 220845Z 07004KT 05/05 A3011 RMK A01 T00450045  RH  100%=      5-min Rain = 0
KWE2 220846Z 07003KT 05/05 A3011 RMK A01 T00450045  RH  100%=      5-min Rain = 0
KWE2 220847Z 07003KT 05/05 A3011 RMK A01 T00450045  RH  100%=      5-min Rain = 0
KWE2 220848Z 08003KT 04/04 A3011 RMK A01 T00440044  RH  100%=      5-min Rain = 0
KWE2 220849Z 08003KT 04/04 A3011 RMK A01 T00440044  RH  100%=      5-min Rain = 0
KWE2 220850Z 09003KT 04/04 A3011 RMK A01 T00440044  RH  100%=      5-min Rain = 0
KWE2 220851Z 11002KT 04/04 A3011 RMK A01 T00440044  RH  100%=      5-min Rain = 0
KWE2 220852Z 09001KT 04/04 A3011 RMK A01 T00440044  RH  100%=      5-min Rain = 0
KWE2 220853Z 09001KT 04/04 A3011 RMK A01 T00440044  RH  100%=      5-min Rain = 0
KWE2 220854Z 08000KT 04/04 A3011 RMK A01 T00440044  RH  100%=      5-min Rain = 0
KWE2 220855Z 00000KT 04/04 A3011 RMK A01 T00430043  RH  100%=      5-min Rain = 0
KWE2 220856Z 33000KT 04/04 A3011 RMK A01 T00430043  RH  100%=      5-min Rain = 0
KWE2 220857Z 33001KT 04/04 A3011 RMK A01 T00430043  RH  100%=      5-min Rain = 0
KWE2 220858Z 32001KT 04/04 A3011 RMK A01 T00440044  RH  100%=      5-min Rain = 0
KWE2 220859Z 33002KT 04/04 A3012 RMK A01 T00440044  RH  100%=      5-min Rain = 0
KWE2 220900Z 33002KT 04/04 A3012 RMK A01 T00430043  RH  100%=      5-min Rain = 0
KWE2 220901Z 31002KT 04/04 A3012 RMK A01 T00430043  RH  100%=      5-min Rain = 0
KWE2 220902Z 31002KT 04/04 A3012 RMK A01 T00420042  RH  100%=      5-min Rain = 0
KWE2 220903Z 32003KT 04/04 A3012 RMK A01 T00420042  RH  100%=      5-min Rain = 0
KWE2 220904Z 31003KT 04/04 A3012 RMK A01 T00420042  RH  100%=      5-min Rain = 0
KWE2 220905Z 31003KT 04/04 A3012 RMK A01 T00410042  RH  100%=      5-min Rain = 0
KWE2 220906Z 33003KT 04/04 A3012 RMK A01 T00410041  RH  100%=      5-min Rain = 0
KWE2 220907Z 34003KT 04/04 A3012 RMK A01 T00410041  RH  100%=      5-min Rain = 0
KWE2 220908Z 35003KT 04/04 A3012 RMK A01 T00410041  RH  100%=      5-min Rain = 0
KWE2 220909Z 34003KT 04/04 A3012 RMK A01 T00400040  RH  100%=      5-min Rain = 0
KWE2 220910Z 35003KT 04/04 A3012 RMK A01 T00400040  RH  100%=      5-min Rain = 0
KWE2 220911Z 34003KT 04/04 A3012 RMK A01 T00400040  RH  100%=      5-min Rain = 0
KWE2 220912Z 34003KT 04/04 A3012 RMK A01 T00400040  RH  100%=      5-min Rain = 0
KWE2 220913Z 33004KT 04/04 A3012 RMK A01 T00400040  RH  100%=      5-min Rain = 0
KWE2 220914Z 32005KT 04/04 A3012 RMK A01 T00390039  RH  100%=      5-min Rain = 0
KWE2 220915Z 32005KT 04/04 A3012 RMK A01 T00390039  RH  100%=      5-min Rain = 0
KWE2 220916Z 33005KT 04/04 A3012 RMK A01 T00390039  RH  100%=      5-min Rain = 0
KWE2 220917Z 33005KT 04/04 A3012 RMK A01 T00390039  RH  100%=      5-min Rain = 0
KWE2 220918Z 34004KT 04/04 A3012 RMK A01 T00390039  RH  100%=      5-min Rain = 0
KWE2 220919Z 35004KT 04/04 A3011 RMK A01 T00390039  RH  100%=      5-min Rain = 0
KWE2 220920Z 35004KT 04/04 A3011 RMK A01 T00390039  RH  100%=      5-min Rain = 0
KWE2 220921Z 36004KT 04/04 A3011 RMK A01 T00390039  RH  100%=      5-min Rain = 0
KWE2 220922Z 00004KT 04/04 A3011 RMK A01 T00390039  RH  100%=      5-min Rain = 0
KWE2 220923Z 01005KT 04/04 A3011 RMK A01 T00380038  RH  100%=      5-min Rain = 0
KWE2 220924Z 01005KT 04/04 A3011 RMK A01 T00380038  RH  100%=      5-min Rain = 0
KWE2 220925Z 02005KT 04/04 A3011 RMK A01 T00380039  RH  100%=      5-min Rain = 0
KWE2 220926Z 01005KT 04/04 A3011 RMK A01 T00390039  RH  100%=      5-min Rain = 0
KWE2 220927Z 01004KT 04/04 A3011 RMK A01 T00400040  RH  100%=      5-min Rain = 0
KWE2 220928Z 02003KT 04/04 A3011 RMK A01 T00400040  RH  100%=      5-min Rain = 0
KWE2 220929Z 02004KT 04/04 A3011 RMK A01 T00410041  RH  100%=      5-min Rain = 0
KWE2 220930Z 02004KT 04/04 A3011 RMK A01 T00410041  RH  100%=      5-min Rain = 0
KWE2 220931Z 02004KT 04/04 A3011 RMK A01 T00410041  RH  100%=      5-min Rain = 0
KWE2 220932Z 03004KT 04/04 A3011 RMK A01 T00410041  RH  100%=      5-min Rain = 0
KWE2 220933Z 04003KT 04/04 A3011 RMK A01 T00420042  RH  100%=      5-min Rain = 0
KWE2 220934Z 04003KT 04/04 A3011 RMK A01 T00410041  RH  100%=      5-min Rain = 0
KWE2 220935Z 03003KT 04/04 A3011 RMK A01 T00420042  RH  100%=      5-min Rain = 0
KWE2 220936Z 02004KT 04/04 A3011 RMK A01 T00420042  RH  100%=      5-min Rain = 0
KWE2 220937Z 02004KT 04/04 A3011 RMK A01 T00420042  RH  100%=      5-min Rain = 0
KWE2 220938Z 02004KT 04/04 A3011 RMK A01 T00420042  RH  100%=      5-min Rain = 0
KWE2 220939Z 03004KT 04/04 A3011 RMK A01 T00420042  RH  100%=      5-min Rain = 0
KWE2 220940Z 03004KT 04/04 A3011 RMK A01 T00420042  RH  100%=      5-min Rain = 0
KWE2 220941Z 02004KT 04/04 A3011 RMK A01 T00420042  RH  100%=      5-min Rain = 0
KWE2 220942Z 02004KT 04/04 A3011 RMK A01 T00420042  RH  100%=      5-min Rain = 0
KWE2 220943Z 00005KT 04/04 A3011 RMK A01 T00430043  RH  100%=      5-min Rain = 0
KWE2 220944Z 36005KT 04/04 A3011 RMK A01 T00430043  RH  100%=      5-min Rain = 0
KWE2 220945Z 36004KT 04/04 A3011 RMK A01 T00430043  RH  100%=      5-min Rain = 0
KWE2 220946Z 01004KT 04/04 A3011 RMK A01 T00430043  RH  100%=      5-min Rain = 0
KWE2 220947Z 02004KT 04/04 A3011 RMK A01 T00430043  RH  100%=      5-min Rain = 0
KWE2 220948Z 01004KT 04/04 A3012 RMK A01 T00440044  RH  100%=      5-min Rain = 0
KWE2 220949Z 35004KT 04/04 A3012 RMK A01 T00430043  RH  100%=      5-min Rain = 0
KWE2 220950Z 35004KT 04/04 A3012 RMK A01 T00440044  RH  100%=      5-min Rain = 0
KWE2 220951Z 35003KT 04/04 A3012 RMK A01 T00440044  RH  100%=      5-min Rain = 0
KWE2 220952Z 34003KT 04/04 A3012 RMK A01 T00440044  RH  100%=      5-min Rain = 0
KWE2 220953Z 34005KT 04/04 A3012 RMK A01 T00440044  RH  100%=      5-min Rain = 0
KWE2 220954Z 33004KT 04/04 A3012 RMK A01 T00440044  RH  100%=      5-min Rain = 0
KWE2 220955Z 34006KT 04/04 A3012 RMK A01 T00440044  RH  100%=      5-min Rain = 0
KWE2 220956Z 34006KT 04/04 A3012 RMK A01 T00440044  RH  100%=      5-min Rain = 0
KWE2 220957Z 35005KT 04/04 A3012 RMK A01 T00440044  RH  100%=      5-min Rain = 0
KWE2 220958Z 34005KT 04/04 A3012 RMK A01 T00440044  RH  100%=      5-min Rain = 0
KWE2 220959Z 34008KT 04/04 A3012 RMK A01 T00440044  RH  100%=      5-min Rain = 0
KWE2 221000Z 34007KT 04/04 A3012 RMK A01 T00440044  RH  100%=      5-min Rain = 0
KWE2 221001Z 34008KT 04/04 A3013 RMK A01 T00440044  RH  100%=      5-min Rain = 0
KWE2 221002Z 34009KT 04/04 A3013 RMK A01 T00440044  RH  100%=      5-min Rain = 0
KWE2 221003Z 35010KT 04/04 A3013 RMK A01 T00440044  RH  100%=      5-min Rain = 0
KWE2 221004Z 34009KT 04/04 A3013 RMK A01 T00440044  RH  100%=      5-min Rain = 0
KWE2 221005Z 34007KT 04/04 A3013 RMK A01 T00440044  RH  100%=      5-min Rain = 0
KWE2 221006Z 34007KT 04/04 A3012 RMK A01 T00440044  RH  100%=      5-min Rain = 0
KWE2 221007Z 34008KT 04/04 A3012 RMK A01 T00440044  RH  100%=      5-min Rain = 0
KWE2 221008Z 34007KT 04/04 A3013 RMK A01 T00440044  RH  100%=      5-min Rain = 0
KWE2 221009Z 35009KT 04/04 A3013 RMK A01 T00440044  RH  100%=      5-min Rain = 0
KWE2 221010Z 34009KT 04/04 A3013 RMK A01 T00440044  RH  100%=      5-min Rain = 0
KWE2 221011Z 34007KT 04/04 A3013 RMK A01 T00440044  RH  100%=      5-min Rain = 0
KWE2 221012Z 34008KT 04/04 A3013 RMK A01 T00440044  RH  100%=      5-min Rain = 0
KWE2 221013Z 34009KT 04/04 A3013 RMK A01 T00440044  RH  100%=      5-min Rain = 0
KWE2 221014Z 34009KT 04/04 A3013 RMK A01 T00440044  RH  100%=      5-min Rain = 0
KWE2 221015Z 35011KT 04/04 A3013 RMK A01 T00440044  RH  100%=      5-min Rain = 0
KWE2 221016Z 34011KT 04/04 A3013 RMK A01 T00440044  RH  100%=      5-min Rain = 0
KWE2 221017Z 35009KT 04/04 A3012 RMK A01 T00440044  RH  100%=      5-min Rain = 0
KWE2 221018Z 35009KT 04/04 A3012 RMK A01 T00440044  RH  100%=      5-min Rain = 0
KWE2 221019Z 35007KT 04/04 A3012 RMK A01 T00440044  RH  100%=      5-min Rain = 0
KWE2 221020Z 34007KT 04/04 A3012 RMK A01 T00440044  RH  100%=      5-min Rain = 0
KWE2 221021Z 34008KT 04/04 A3013 RMK A01 T00440044  RH  100%=      5-min Rain = 0
KWE2 221022Z 35009KT 04/04 A3013 RMK A01 T00440044  RH  100%=      5-min Rain = 0
KWE2 221023Z 34007KT 04/04 A3013 RMK A01 T00440044  RH  100%=      5-min Rain = 0
KWE2 221024Z 35009KT 04/04 A3013 RMK A01 T00440044  RH  100%=      5-min Rain = 0
KWE2 221025Z 35009KT 04/04 A3013 RMK A01 T00440044  RH  100%=      5-min Rain = 0
KWE2 221026Z 35009KT 04/04 A3013 RMK A01 T00440044  RH  100%=      5-min Rain = 0
KWE2 221027Z 35009KT 04/04 A3013 RMK A01 T00440044  RH  100%=      5-min Rain = 0
KWE2 221028Z 35009KT 04/04 A3013 RMK A01 T00440044  RH  100%=      5-min Rain = 0
KWE2 221029Z 35008KT 04/04 A3013 RMK A01 T00440044  RH  100%=      5-min Rain = 0
KWE2 221030Z 35008KT 04/04 A3012 RMK A01 T00440044  RH  100%=      5-min Rain = 0
KWE2 221031Z 35007KT 04/05 A3013 RMK A01 T00440045  RH  100%=      5-min Rain = 0
KWE2 221032Z 35008KT 04/04 A3013 RMK A01 T00440044  RH  100%=      5-min Rain = 0
KWE2 221033Z 01008KT 04/04 A3013 RMK A01 T00440044  RH  100%=      5-min Rain = 0
KWE2 221034Z 00008KT 04/05 A3013 RMK A01 T00440045  RH  100%=      5-min Rain = 0
KWE2 221035Z 01009KT 04/04 A3013 RMK A01 T00440044  RH  100%=      5-min Rain = 0
KWE2 221036Z 01009KT 04/04 A3013 RMK A01 T00440044  RH  100%=      5-min Rain = 0
KWE2 221037Z 35009KT 04/04 A3013 RMK A01 T00440044  RH  100%=      5-min Rain = 0
KWE2 221038Z 35007KT 04/04 A3013 RMK A01 T00440044  RH  100%=      5-min Rain = 0
KWE2 221039Z 34007KT 04/04 A3013 RMK A01 T00440044  RH  100%=      5-min Rain = 0
KWE2 221040Z 33007KT 04/04 A3013 RMK A01 T00440044  RH  100%=      5-min Rain = 0
KWE2 221041Z 34008KT 04/04 A3013 RMK A01 T00440044  RH  100%=      5-min Rain = 0
KWE2 221042Z 34007KT 04/04 A3013 RMK A01 T00440044  RH  100%=      5-min Rain = 0
KWE2 221043Z 35006KT 04/04 A3013 RMK A01 T00440044  RH  100%=      5-min Rain = 0
KWE2 221044Z 35007KT 04/04 A3013 RMK A01 T00440044  RH  100%=      5-min Rain = 0
KWE2 221045Z 34007KT 04/04 A3013 RMK A01 T00440044  RH  100%=      5-min Rain = 0
KWE2 221046Z 35009KT 04/04 A3014 RMK A01 T00440044  RH  100%=      5-min Rain = 0
KWE2 221047Z 36006KT 04/04 A3014 RMK A01 T00440044  RH  100%=      5-min Rain = 0
KWE2 221048Z 35006KT 04/04 A3014 RMK A01 T00440044  RH  100%=      5-min Rain = 0
KWE2 221049Z 35009KT 04/04 A3014 RMK A01 T00440044  RH  100%=      5-min Rain = 0
KWE2 221050Z 35007KT 04/04 A3014 RMK A01 T00440044  RH  100%=      5-min Rain = 0
KWE2 221051Z 34007KT 04/04 A3015 RMK A01 T00430043  RH  100%=      5-min Rain = 0
KWE2 221052Z 32006KT 04/04 A3015 RMK A01 T00440044  RH  100%=      5-min Rain = 0
KWE2 221053Z 32007KT 04/04 A3015 RMK A01 T00430043  RH  100%=      5-min Rain = 0
KWE2 221054Z 32005KT 04/04 A3015 RMK A01 T00440044  RH  100%=      5-min Rain = 0
KWE2 221055Z 32006KT 04/04 A3015 RMK A01 T00440044  RH  100%=      5-min Rain = 0
KWE2 221056Z 32007KT 04/04 A3015 RMK A01 T00440044  RH  100%=      5-min Rain = 0
KWE2 221057Z 32007KT 04/04 A3016 RMK A01 T00440044  RH  100%=      5-min Rain = 0
KWE2 221058Z 33006KT 04/04 A3016 RMK A01 T00440044  RH  100%=      5-min Rain = 0
KWE2 221059Z 33006KT 04/04 A3016 RMK A01 T00440044  RH  100%=      5-min Rain = 0
KWE2 221100Z 34007KT 04/04 A3015 RMK A01 T00440044  RH  100%=      5-min Rain = 0
KWE2 221101Z 33008KT 04/04 A3015 RMK A01 T00440044  RH  100%=      5-min Rain = 0
KWE2 221102Z 34007KT 04/04 A3015 RMK A01 T00440044  RH  100%=      5-min Rain = 0
KWE2 221103Z 34008KT 04/04 A3015 RMK A01 T00440044  RH  100%=      5-min Rain = 0
KWE2 221104Z 34008KT 04/04 A3015 RMK A01 T00440044  RH  100%=      5-min Rain = 0
KWE2 221105Z 33008KT 04/04 A3015 RMK A01 T00440044  RH  100%=      5-min Rain = 0
KWE2 221106Z 35006KT 04/04 A3015 RMK A01 T00440044  RH  100%=      5-min Rain = 0
KWE2 221107Z 35007KT 04/04 A3015 RMK A01 T00440044  RH  100%=      5-min Rain = 0
KWE2 221108Z 35007KT 04/04 A3015 RMK A01 T00440044  RH  100%=      5-min Rain = 0
KWE2 221109Z 35010KT 04/04 A3015 RMK A01 T00440044  RH  100%=      5-min Rain = 0
KWE2 221110Z 35009KT 04/04 A3015 RMK A01 T00440044  RH  100%=      5-min Rain = 0
KWE2 221111Z 34007KT 04/04 A3015 RMK A01 T00440044  RH  100%=      5-min Rain = 0
KWE2 221112Z 34007KT 04/04 A3015 RMK A01 T00440044  RH  100%=      5-min Rain = 0
KWE2 221113Z 35008KT 04/04 A3015 RMK A01 T00440044  RH  100%=      5-min Rain = 0
KWE2 221114Z 35008KT 04/04 A3015 RMK A01 T00440044  RH  100%=      5-min Rain = 0
KWE2 221115Z 34007KT 04/04 A3015 RMK A01 T00440044  RH  100%=      5-min Rain = 0
KWE2 221116Z 33007KT 04/04 A3015 RMK A01 T00440044  RH  100%=      5-min Rain = 0
KWE2 221117Z 34007KT 04/04 A3015 RMK A01 T00440044  RH  100%=      5-min Rain = 0
KWE2 221118Z 35006KT 04/04 A3015 RMK A01 T00440044  RH  100%=      5-min Rain = 0
KWE2 221119Z 35006KT 04/04 A3015 RMK A01 T00440044  RH  100%=      5-min Rain = 0
KWE2 221120Z 35007KT 04/04 A3015 RMK A01 T00440044  RH  100%=      5-min Rain = 0
KWE2 221121Z 35007KT 04/04 A3015 RMK A01 T00440044  RH  100%=      5-min Rain = 0
KWE2 221122Z 35006KT 04/04 A3015 RMK A01 T00440044  RH  100%=      5-min Rain = 0
KWE2 221123Z 35006KT 04/04 A3015 RMK A01 T00440044  RH  100%=      5-min Rain = 0
KWE2 221124Z 35007KT 04/04 A3015 RMK A01 T00440044  RH  100%=      5-min Rain = 0
KWE2 221125Z 35009KT 04/04 A3014 RMK A01 T00440044  RH  100%=      5-min Rain = 0
KWE2 221126Z 34008KT 04/05 A3014 RMK A01 T00440045  RH  100%=      5-min Rain = 0
KWE2 221127Z 34009KT 04/04 A3015 RMK A01 T00440044  RH  100%=      5-min Rain = 0
KWE2 221128Z 34010KT 04/04 A3015 RMK A01 T00440044  RH  100%=      5-min Rain = 0
KWE2 221129Z 34009KT 04/04 A3015 RMK A01 T00440044  RH  100%=      5-min Rain = 0
KWE2 221130Z 34010KT 04/04 A3015 RMK A01 T00440044  RH  100%=      5-min Rain = 0
KWE2 221131Z 34008KT 04/04 A3015 RMK A01 T00440044  RH  100%=      5-min Rain = 0
KWE2 221132Z 34008KT 04/04 A3015 RMK A01 T00440044  RH  100%=      5-min Rain = 0
KWE2 221133Z 34009KT 04/04 A3015 RMK A01 T00440044  RH  100%=      5-min Rain = 0
KWE2 221134Z 34008KT 04/04 A3015 RMK A01 T00440044  RH  100%=      5-min Rain = 0
KWE2 221135Z 34007KT 04/04 A3015 RMK A01 T00440044  RH  100%=      5-min Rain = 0
KWE2 221136Z 35008KT 04/04 A3015 RMK A01 T00440044  RH  100%=      5-min Rain = 0
KWE2 221137Z 35009KT 04/04 A3015 RMK A01 T00440044  RH  100%=      5-min Rain = 0
KWE2 221138Z 35008KT 04/04 A3015 RMK A01 T00440044  RH  100%=      5-min Rain = 0
KWE2 221139Z 35010KT 04/04 A3015 RMK A01 T00440044  RH  100%=      5-min Rain = 0
KWE2 221140Z 34008KT 04/04 A3015 RMK A01 T00430043  RH  100%=      5-min Rain = 0
KWE2 221141Z 34008KT 04/04 A3015 RMK A01 T00430043  RH  100%=      5-min Rain = 0
KWE2 221142Z 34008KT 04/04 A3015 RMK A01 T00430043  RH  100%=      5-min Rain = 0
KWE2 221143Z 35008KT 04/04 A3015 RMK A01 T00430043  RH  100%=      5-min Rain = 0
KWE2 221144Z 34009KT 04/04 A3015 RMK A01 T00430043  RH  100%=      5-min Rain = 0
KWE2 221145Z 35009KT 04/04 A3015 RMK A01 T00430043  RH  100%=      5-min Rain = 0
KWE2 221146Z 34008KT 04/04 A3015 RMK A01 T00430043  RH  100%=      5-min Rain = 0
KWE2 221147Z 33006KT 04/04 A3015 RMK A01 T00430043  RH  100%=      5-min Rain = 0
KWE2 221148Z 33007KT 04/04 A3015 RMK A01 T00440044  RH  100%=      5-min Rain = 0
KWE2 221149Z 33007KT 04/04 A3015 RMK A01 T00440044  RH  100%=      5-min Rain = 0
KWE2 221150Z 33007KT 04/04 A3015 RMK A01 T00430043  RH  100%=      5-min Rain = 0
KWE2 221151Z 35008KT 04/04 A3015 RMK A01 T00430043  RH  100%=      5-min Rain = 0
KWE2 221152Z 34008KT 04/04 A3015 RMK A01 T00430043  RH  100%=      5-min Rain = 0
KWE2 221153Z 34008KT 04/04 A3015 RMK A01 T00430043  RH  100%=      5-min Rain = 0
KWE2 221154Z 34008KT 04/04 A3015 RMK A01 T00430043  RH  100%=      5-min Rain = 0
KWE2 221155Z 35008KT 04/04 A3015 RMK A01 T00430043  RH  100%=      5-min Rain = 0
KWE2 221156Z 35007KT 04/04 A3015 RMK A01 T00430043  RH  100%=      5-min Rain = 0
KWE2 221157Z 34009KT 04/04 A3015 RMK A01 T00430044  RH  100%=      5-min Rain = 0
KWE2 221158Z 34010KT 04/04 A3015 RMK A01 T00430043  RH  100%=      5-min Rain = 0
KWE2 221159Z 34009KT 04/04 A3015 RMK A01 T00430043  RH  100%=      5-min Rain = 0
KWE2 221200Z 34007KT 04/04 A3015 RMK A01 T00430043  RH  100%=      5-min Rain = 0
KWE2 221201Z 35009KT 04/04 A3015 RMK A01 T00430043  RH  100%=      5-min Rain = 0
KWE2 221202Z 35008KT 04/04 A3015 RMK A01 T00420043  RH  100%=      5-min Rain = 0
KWE2 221203Z 35009KT 04/04 A3014 RMK A01 T00430043  RH  100%=      5-min Rain = 0
KWE2 221204Z 35010KT 04/04 A3015 RMK A01 T00420042  RH  100%=      5-min Rain = 0
KWE2 221205Z 36009KT 04/04 A3015 RMK A01 T00420042  RH  100%=      5-min Rain = 0
KWE2 221206Z 35010KT 04/04 A3014 RMK A01 T00420042  RH  100%=      5-min Rain = 0
KWE2 221207Z 36008KT 04/04 A3014 RMK A01 T00420042  RH  100%=      5-min Rain = 0
KWE2 221208Z 00009KT 04/04 A3015 RMK A01 T00420042  RH  100%=      5-min Rain = 0
KWE2 221209Z 35008KT 04/04 A3015 RMK A01 T00410042  RH  100%=      5-min Rain = 0
KWE2 221210Z 35009KT 04/04 A3015 RMK A01 T00420042  RH  100%=      5-min Rain = 0
KWE2 221211Z 36008KT 04/04 A3015 RMK A01 T00420042  RH  100%=      5-min Rain = 0
KWE2 221212Z 36007KT 04/04 A3015 RMK A01 T00410041  RH  100%=      5-min Rain = 0
KWE2 221213Z 35008KT 04/04 A3015 RMK A01 T00420042  RH  100%=      5-min Rain = 0
KWE2 221214Z 34009KT 04/04 A3015 RMK A01 T00420042  RH  100%=      5-min Rain = 0
KWE2 221215Z 00009KT 04/04 A3015 RMK A01 T00410041  RH  100%=      5-min Rain = 0
KWE2 221216Z 00009KT 04/04 A3015 RMK A01 T00410041  RH  100%=      5-min Rain = 0
KWE2 221217Z 35008KT 04/04 A3015 RMK A01 T00410041  RH  100%=      5-min Rain = 0
KWE2 221218Z 34009KT 04/04 A3015 RMK A01 T00410041  RH  100%=      5-min Rain = 0
KWE2 221219Z 34008KT 04/04 A3015 RMK A01 T00410041  RH  100%=      5-min Rain = 0
KWE2 221220Z 35007KT 04/04 A3015 RMK A01 T00410041  RH  100%=      5-min Rain = 0
KWE2 221221Z 34005KT 04/04 A3016 RMK A01 T00400041  RH  100%=      5-min Rain = 0
KWE2 221222Z 34006KT 04/04 A3016 RMK A01 T00410041  RH  100%=      5-min Rain = 0
KWE2 221223Z 34006KT 04/04 A3016 RMK A01 T00410041  RH  100%=      5-min Rain = 0
KWE2 221224Z 36007KT 04/04 A3016 RMK A01 T00410041  RH  100%=      5-min Rain = 0
KWE2 221225Z 36007KT 04/04 A3016 RMK A01 T00410041  RH  100%=      5-min Rain = 0
KWE2 221226Z 35006KT 04/04 A3016 RMK A01 T00410041  RH  100%=      5-min Rain = 0
KWE2 221227Z 00008KT 04/04 A3016 RMK A01 T00410041  RH  100%=      5-min Rain = 0
KWE2 221228Z 01009KT 04/04 A3016 RMK A01 T00410041  RH  100%=      5-min Rain = 0
KWE2 221229Z 00008KT 04/04 A3016 RMK A01 T00410041  RH  100%=      5-min Rain = 0
KWE2 221230Z 00008KT 04/04 A3016 RMK A01 T00410041  RH  100%=      5-min Rain = 0
KWE2 221231Z 00007KT 04/04 A3017 RMK A01 T00410041  RH  100%=      5-min Rain = 0
KWE2 221232Z 01008KT 04/04 A3017 RMK A01 T00410041  RH  100%=      5-min Rain = 0
KWE2 221233Z 35008KT 04/04 A3017 RMK A01 T00410041  RH  100%=      5-min Rain = 0
KWE2 221234Z 00007KT 04/04 A3017 RMK A01 T00410041  RH  100%=      5-min Rain = 0
KWE2 221235Z 00008KT 04/04 A3017 RMK A01 T00410041  RH  100%=      5-min Rain = 0
KWE2 221236Z 01009KT 04/04 A3017 RMK A01 T00410041  RH  100%=      5-min Rain = 0
KWE2 221237Z 01008KT 04/04 A3017 RMK A01 T00410041  RH  100%=      5-min Rain = 0
KWE2 221238Z 02008KT 04/04 A3016 RMK A01 T00400040  RH  100%=      5-min Rain = 0
KWE2 221239Z 01008KT 04/04 A3016 RMK A01 T00410041  RH  100%=      5-min Rain = 0
KWE2 221240Z 01006KT 04/04 A3016 RMK A01 T00410041  RH  100%=      5-min Rain = 0
KWE2 221241Z 00006KT 04/04 A3016 RMK A01 T00410041  RH  100%=      5-min Rain = 0
KWE2 221242Z 02007KT 04/04 A3017 RMK A01 T00400040  RH  100%=      5-min Rain = 0
KWE2 221243Z 01007KT 04/04 A3016 RMK A01 T00410041  RH  100%=      5-min Rain = 0
KWE2 221244Z 01008KT 04/04 A3016 RMK A01 T00410041  RH  100%=      5-min Rain = 0
KWE2 221245Z 01008KT 04/04 A3016 RMK A01 T00410041  RH  100%=      5-min Rain = 0
KWE2 221246Z 01007KT 04/04 A3016 RMK A01 T00410041  RH  100%=      5-min Rain = 0
KWE2 221247Z 01008KT 04/04 A3016 RMK A01 T00410041  RH  100%=      5-min Rain = 0
KWE2 221248Z 01008KT 04/04 A3016 RMK A01 T00410041  RH  100%=      5-min Rain = 0
KWE2 221249Z 36007KT 04/04 A3016 RMK A01 T00410041  RH  100%=      5-min Rain = 0
KWE2 221250Z 35007KT 04/04 A3016 RMK A01 T00410041  RH  100%=      5-min Rain = 0
KWE2 221251Z 36006KT 04/04 A3016 RMK A01 T00410041  RH  100%=      5-min Rain = 0
KWE2 221252Z 00006KT 04/04 A3016 RMK A01 T00410041  RH  100%=      5-min Rain = 0
KWE2 221253Z 01006KT 04/04 A3016 RMK A01 T00410041  RH  100%=      5-min Rain = 0
KWE2 221254Z 01007KT 04/04 A3016 RMK A01 T00410041  RH  100%=      5-min Rain = 0
KWE2 221255Z 00007KT 04/04 A3016 RMK A01 T00410041  RH  100%=      5-min Rain = 0
KWE2 221256Z 01007KT 04/04 A3016 RMK A01 T00420042  RH  100%=      5-min Rain = 0
KWE2 221257Z 01008KT 04/04 A3016 RMK A01 T00420042  RH  100%=      5-min Rain = 0
KWE2 221258Z 36007KT 04/04 A3016 RMK A01 T00420042  RH  100%=      5-min Rain = 0
KWE2 221259Z 01007KT 04/04 A3016 RMK A01 T00420042  RH  100%=      5-min Rain = 0
KWE2 221300Z 01007KT 04/04 A3016 RMK A01 T00420042  RH  100%=      5-min Rain = 0
KWE2 221301Z 00006KT 04/04 A3016 RMK A01 T00420042  RH  100%=      5-min Rain = 0
KWE2 221302Z 00007KT 04/04 A3017 RMK A01 T00420042  RH  100%=      5-min Rain = 0
KWE2 221303Z 01006KT 04/04 A3017 RMK A01 T00420042  RH  100%=      5-min Rain = 0
KWE2 221304Z 01007KT 04/04 A3017 RMK A01 T00410042  RH  100%=      5-min Rain = 0
KWE2 221305Z 00007KT 04/04 A3017 RMK A01 T00420042  RH  100%=      5-min Rain = 0
KWE2 221306Z 00007KT 04/04 A3017 RMK A01 T00420042  RH  100%=      5-min Rain = 0
KWE2 221307Z 00007KT 04/04 A3017 RMK A01 T00420042  RH  100%=      5-min Rain = 0
KWE2 221308Z 00008KT 04/04 A3017 RMK A01 T00420042  RH  100%=      5-min Rain = 0
KWE2 221309Z 00006KT 04/04 A3017 RMK A01 T00420042  RH  100%=      5-min Rain = 0
KWE2 221310Z 36007KT 04/04 A3017 RMK A01 T00420042  RH  100%=      5-min Rain = 0
KWE2 221311Z 36007KT 04/04 A3017 RMK A01 T00430043  RH  100%=      5-min Rain = 0
KWE2 221312Z 35008KT 04/04 A3017 RMK A01 T00420043  RH  100%=      5-min Rain = 0
KWE2 221313Z 36007KT 04/04 A3017 RMK A01 T00420042  RH  100%=      5-min Rain = 0
KWE2 221314Z 36007KT 04/04 A3017 RMK A01 T00420042  RH  100%=      5-min Rain = 0
KWE2 221315Z 00006KT 04/04 A3017 RMK A01 T00430043  RH  100%=      5-min Rain = 0
KWE2 221316Z 36006KT 04/04 A3017 RMK A01 T00430043  RH  100%=      5-min Rain = 0
KWE2 221317Z 34005KT 04/04 A3017 RMK A01 T00430043  RH  100%=      5-min Rain = 0
KWE2 221318Z 35005KT 04/04 A3017 RMK A01 T00430043  RH  100%=      5-min Rain = 0
KWE2 221319Z 35005KT 04/04 A3017 RMK A01 T00430043  RH  100%=      5-min Rain = 0
KWE2 221320Z 35005KT 04/04 A3017 RMK A01 T00430043  RH  100%=      5-min Rain = 0
KWE2 221321Z 35005KT 04/04 A3017 RMK A01 T00430043  RH  100%=      5-min Rain = 0
KWE2 221322Z 35006KT 04/04 A3017 RMK A01 T00440044  RH  100%=      5-min Rain = 0
KWE2 221323Z 36006KT 04/04 A3017 RMK A01 T00440044  RH  100%=      5-min Rain = 0
KWE2 221324Z 36005KT 04/04 A3017 RMK A01 T00440043  RH  100%=      5-min Rain = 0
KWE2 221325Z 35005KT 04/04 A3017 RMK A01 T00440044  RH  100%=      5-min Rain = 0
KWE2 221326Z 35004KT 04/04 A3017 RMK A01 T00440044  RH  100%=      5-min Rain = 0
KWE2 221327Z 36005KT 04/04 A3017 RMK A01 T00440044  RH  100%=      5-min Rain = 0
KWE2 221328Z 36005KT 04/04 A3017 RMK A01 T00440044  RH  100%=      5-min Rain = 0
KWE2 221329Z 36006KT 04/04 A3017 RMK A01 T00440044  RH  100%=      5-min Rain = 0
KWE2 221330Z 35005KT 04/04 A3017 RMK A01 T00430044  RH  100%=      5-min Rain = 0
KWE2 221331Z 35004KT 04/04 A3017 RMK A01 T00430043  RH  100%=      5-min Rain = 0
KWE2 221332Z 36004KT 04/04 A3017 RMK A01 T00440044  RH  100%=      5-min Rain = 0
KWE2 221333Z 00005KT 04/04 A3017 RMK A01 T00440044  RH  100%=      5-min Rain = 0
KWE2 221334Z 00006KT 04/04 A3017 RMK A01 T00440044  RH  100%=      5-min Rain = 0
KWE2 221335Z 36008KT 04/04 A3017 RMK A01 T00440044  RH  100%=      5-min Rain = 0
KWE2 221336Z 35006KT 04/04 A3017 RMK A01 T00440044  RH  100%=      5-min Rain = 0
KWE2 221337Z 36006KT 04/04 A3017 RMK A01 T00440044  RH  100%=      5-min Rain = 0
KWE2 221338Z 01007KT 04/04 A3017 RMK A01 T00440044  RH  100%=      5-min Rain = 0
KWE2 221339Z 35008KT 04/04 A3017 RMK A01 T00440044  RH  100%=      5-min Rain = 0
KWE2 221340Z 35009KT 04/04 A3017 RMK A01 T00440044  RH  100%=      5-min Rain = 0
KWE2 221341Z 35008KT 04/04 A3017 RMK A01 T00440043  RH  100%=      5-min Rain = 0
KWE2 221342Z 36008KT 04/04 A3017 RMK A01 T00440044  RH  100%=      5-min Rain = 0
KWE2 221343Z 36008KT 04/04 A3017 RMK A01 T00440044  RH  100%=      5-min Rain = 0
KWE2 221344Z 35007KT 04/04 A3017 RMK A01 T00440044  RH  100%=      5-min Rain = 0
KWE2 221345Z 34008KT 04/04 A3017 RMK A01 T00440044  RH  100%=      5-min Rain = 0
KWE2 221346Z 34010KT 04/04 A3017 RMK A01 T00440044  RH  100%=      5-min Rain = 0
KWE2 221347Z 35008KT 04/04 A3017 RMK A01 T00440044  RH  100%=      5-min Rain = 0
KWE2 221348Z 35008KT 04/04 A3017 RMK A01 T00440044  RH  100%=      5-min Rain = 0
KWE2 221349Z 00007KT 04/04 A3017 RMK A01 T00430043  RH  100%=      5-min Rain = 0
KWE2 221350Z 36006KT 04/04 A3018 RMK A01 T00430043  RH  100%=      5-min Rain = 0
KWE2 221351Z 00005KT 04/04 A3018 RMK A01 T00430043  RH  100%=      5-min Rain = 0
KWE2 221352Z 01006KT 04/04 A3018 RMK A01 T00430044  RH  100%=      5-min Rain = 0
KWE2 221353Z 00009KT 04/04 A3018 RMK A01 T00430043  RH  100%=      5-min Rain = 0
KWE2 221354Z 35009KT 04/04 A3018 RMK A01 T00430044  RH  100%=      5-min Rain = 0
KWE2 221355Z 35006KT 04/04 A3018 RMK A01 T00440044  RH  100%=      5-min Rain = 0
KWE2 221356Z 35006KT 04/04 A3018 RMK A01 T00430043  RH  100%=      5-min Rain = 0
KWE2 221357Z 34007KT 04/04 A3018 RMK A01 T00440044  RH  100%=      5-min Rain = 0
KWE2 221358Z 34007KT 04/04 A3018 RMK A01 T00440044  RH  100%=      5-min Rain = 0
KWE2 221359Z 34007KT 04/04 A3018 RMK A01 T00440044  RH  100%=      5-min Rain = 0
KWE2 221400Z 34009KT 04/04 A3018 RMK A01 T00440044  RH  100%=      5-min Rain = 0
KWE2 221401Z 35008KT 04/04 A3018 RMK A01 T00440044  RH  100%=      5-min Rain = 0
KWE2 221402Z 34008KT 04/04 A3018 RMK A01 T00440044  RH  100%=      5-min Rain = 0
KWE2 221403Z 34007KT 04/04 A3018 RMK A01 T00440044  RH  100%=      5-min Rain = 0
KWE2 221404Z 34005KT 04/04 A3018 RMK A01 T00440044  RH  100%=      5-min Rain = 0
KWE2 221405Z 33005KT 04/04 A3018 RMK A01 T00440044  RH  100%=      5-min Rain = 0
KWE2 221406Z 34006KT 04/04 A3018 RMK A01 T00440044  RH  100%=      5-min Rain = 0
KWE2 221407Z 33005KT 04/04 A3018 RMK A01 T00440044  RH  100%=      5-min Rain = 0
KWE2 221408Z 34005KT 04/04 A3018 RMK A01 T00440044  RH  100%=      5-min Rain = 0
KWE2 221409Z 33004KT 05/05 A3018 RMK A01 T00450045  RH  100%=      5-min Rain = 0
KWE2 221410Z 33005KT 05/05 A3018 RMK A01 T00450045  RH  100%=      5-min Rain = 0
KWE2 221411Z 32005KT 05/05 A3018 RMK A01 T00450045  RH  100%=      5-min Rain = 0
KWE2 221412Z 32007KT 05/05 A3018 RMK A01 T00450045  RH  100%=      5-min Rain = 0
KWE2 221413Z 33006KT 05/04 A3018 RMK A01 T00460044  RH  099%=      5-min Rain = 0
KWE2 221414Z 33005KT 05/04 A3018 RMK A01 T00450044  RH  099%=      5-min Rain = 0
KWE2 221415Z 34005KT 05/05 A3018 RMK A01 T00450045  RH  100%=      5-min Rain = 0
KWE2 221416Z 33007KT 05/05 A3018 RMK A01 T00450045  RH  100%=      5-min Rain = 0
KWE2 221417Z 34007KT 05/05 A3018 RMK A01 T00450045  RH  100%=      5-min Rain = 0
KWE2 221418Z 34006KT 05/05 A3018 RMK A01 T00450045  RH  100%=      5-min Rain = 0
KWE2 221419Z 34008KT 05/05 A3018 RMK A01 T00450045  RH  100%=      5-min Rain = 0
KWE2 221420Z 34007KT 04/04 A3018 RMK A01 T00440044  RH  100%=      5-min Rain = 0
KWE2 221421Z 34006KT 04/04 A3018 RMK A01 T00440044  RH  100%=      5-min Rain = 0
KWE2 221422Z 34006KT 04/04 A3018 RMK A01 T00440044  RH  100%=      5-min Rain = 0
KWE2 221423Z 34006KT 04/04 A3018 RMK A01 T00440044  RH  100%=      5-min Rain = 0
KWE2 221424Z 34006KT 04/04 A3018 RMK A01 T00440044  RH  100%=      5-min Rain = 0
KWE2 221425Z 34006KT 05/05 A3018 RMK A01 T00450045  RH  100%=      5-min Rain = 0
KWE2 221426Z 34007KT 04/04 A3018 RMK A01 T00440044  RH  100%=      5-min Rain = 0
KWE2 221427Z 34008KT 04/04 A3018 RMK A01 T00440042  RH  099%=      5-min Rain = 0
KWE2 221428Z 34007KT 04/04 A3018 RMK A01 T00440042  RH  098%=      5-min Rain = 0
KWE2 221429Z 34006KT 04/04 A3018 RMK A01 T00440042  RH  098%=      5-min Rain = 0
KWE2 221430Z 34005KT 05/04 A3018 RMK A01 T00450043  RH  099%=      5-min Rain = 0
KWE2 221431Z 33004KT 05/04 A3018 RMK A01 T00450044  RH  100%=      5-min Rain = 0
KWE2 221432Z 33006KT 05/05 A3018 RMK A01 T00450045  RH  100%=      5-min Rain = 0
KWE2 221433Z 34007KT 05/05 A3018 RMK A01 T00450045  RH  100%=      5-min Rain = 0
KWE2 221434Z 34007KT 05/04 A3018 RMK A01 T00450044  RH  099%=      5-min Rain = 0
KWE2 221435Z 34007KT 05/04 A3018 RMK A01 T00450042  RH  098%=      5-min Rain = 0
KWE2 221436Z 34007KT 05/04 A3018 RMK A01 T00450043  RH  098%=      5-min Rain = 0
KWE2 221437Z 35007KT 05/04 A3018 RMK A01 T00460042  RH  098%=      5-min Rain = 0
KWE2 221438Z 34007KT 05/04 A3018 RMK A01 T00460042  RH  098%=      5-min Rain = 0
KWE2 221439Z 34008KT 05/04 A3018 RMK A01 T00460042  RH  097%=      5-min Rain = 0
KWE2 221440Z 34007KT 05/04 A3018 RMK A01 T00460038  RH  095%=      5-min Rain = 0
KWE2 221441Z 34006KT 05/04 A3018 RMK A01 T00460036  RH  094%=      5-min Rain = 0
KWE2 221442Z 34007KT 05/04 A3018 RMK A01 T00460038  RH  095%=      5-min Rain = 0
KWE2 221443Z 35007KT 05/04 A3018 RMK A01 T00460038  RH  095%=      5-min Rain = 0
KWE2 221444Z 35006KT 05/04 A3018 RMK A01 T00460037  RH  094%=      5-min Rain = 0
KWE2 221445Z 34006KT 05/04 A3018 RMK A01 T00460037  RH  094%=      5-min Rain = 0
KWE2 221446Z 34005KT 05/04 A3018 RMK A01 T00460035  RH  093%=      5-min Rain = 0
KWE2 221447Z 34006KT 05/04 A3018 RMK A01 T00460036  RH  093%=      5-min Rain = 0
KWE2 221448Z 34006KT 05/04 A3018 RMK A01 T00460038  RH  094%=      5-min Rain = 0
KWE2 221449Z 34006KT 05/04 A3018 RMK A01 T00470039  RH  095%=      5-min Rain = 0
KWE2 221450Z 34008KT 05/04 A3018 RMK A01 T00470038  RH  094%=      5-min Rain = 0
KWE2 221451Z 34007KT 05/04 A3018 RMK A01 T00470037  RH  094%=      5-min Rain = 0
KWE2 221452Z 33008KT 05/04 A3018 RMK A01 T00460035  RH  093%=      5-min Rain = 0
KWE2 221453Z 34008KT 05/04 A3019 RMK A01 T00460037  RH  094%=      5-min Rain = 0
KWE2 221454Z 34006KT 05/04 A3019 RMK A01 T00460036  RH  094%=      5-min Rain = 0
KWE2 221455Z 33007KT 05/04 A3019 RMK A01 T00460035  RH  092%=      5-min Rain = 0
KWE2 221456Z 35007KT 05/04 A3019 RMK A01 T00460035  RH  092%=      5-min Rain = 0
KWE2 221457Z 35006KT 05/04 A3019 RMK A01 T00470038  RH  094%=      5-min Rain = 0
KWE2 221458Z 34006KT 05/04 A3019 RMK A01 T00460040  RH  096%=      5-min Rain = 0
KWE2 221459Z 34006KT 05/04 A3019 RMK A01 T00460041  RH  097%=      5-min Rain = 0
KWE2 221500Z 35006KT 05/04 A3019 RMK A01 T00460042  RH  097%=      5-min Rain = 0
KWE2 221501Z 35007KT 05/04 A3019 RMK A01 T00460041  RH  097%=      5-min Rain = 0
KWE2 221502Z 35006KT 05/04 A3019 RMK A01 T00460042  RH  097%=      5-min Rain = 0
KWE2 221503Z 34005KT 05/04 A3019 RMK A01 T00460042  RH  097%=      5-min Rain = 0
KWE2 221504Z 35005KT 05/04 A3019 RMK A01 T00470041  RH  096%=      5-min Rain = 0
KWE2 221505Z 35006KT 05/04 A3019 RMK A01 T00470040  RH  096%=      5-min Rain = 0
KWE2 221506Z 35007KT 05/04 A3019 RMK A01 T00470039  RH  095%=      5-min Rain = 0
KWE2 221507Z 34007KT 05/04 A3019 RMK A01 T00470036  RH  092%=      5-min Rain = 0
KWE2 221508Z 36007KT 05/03 A3019 RMK A01 T00470033  RH  091%=      5-min Rain = 0
KWE2 221509Z 36005KT 05/03 A3019 RMK A01 T00470032  RH  090%=      5-min Rain = 0
KWE2 221510Z 35005KT 05/04 A3019 RMK A01 T00480036  RH  092%=      5-min Rain = 0
KWE2 221511Z 34006KT 05/04 A3019 RMK A01 T00480036  RH  092%=      5-min Rain = 0
KWE2 221512Z 34006KT 05/04 A3019 RMK A01 T00480035  RH  091%=      5-min Rain = 0
KWE2 221513Z 34006KT 05/03 A3019 RMK A01 T00480033  RH  090%=      5-min Rain = 0
KWE2 221514Z 33005KT 05/03 A3019 RMK A01 T00480034  RH  091%=      5-min Rain = 0
KWE2 221515Z 32006KT 05/04 A3019 RMK A01 T00480035  RH  091%=      5-min Rain = 0
KWE2 221516Z 33005KT 05/03 A3019 RMK A01 T00480033  RH  090%=      5-min Rain = 0
KWE2 221517Z 34006KT 05/04 A3019 RMK A01 T00480035  RH  091%=      5-min Rain = 0
KWE2 221518Z 35005KT 05/03 A3019 RMK A01 T00480034  RH  090%=      5-min Rain = 0
KWE2 221519Z 36004KT 05/04 A3019 RMK A01 T00490036  RH  092%=      5-min Rain = 0
KWE2 221520Z 00005KT 05/04 A3019 RMK A01 T00490038  RH  093%=      5-min Rain = 0
KWE2 221521Z 00006KT 05/04 A3019 RMK A01 T00490036  RH  091%=      5-min Rain = 0
KWE2 221522Z 00006KT 05/04 A3019 RMK A01 T00500035  RH  091%=      5-min Rain = 0
KWE2 221523Z 36005KT 05/03 A3019 RMK A01 T00490034  RH  090%=      5-min Rain = 0
KWE2 221524Z 01006KT 05/04 A3019 RMK A01 T00490035  RH  091%=      5-min Rain = 0
KWE2 221525Z 35005KT 05/04 A3019 RMK A01 T00490038  RH  092%=      5-min Rain = 0
KWE2 221526Z 01006KT 05/04 A3019 RMK A01 T00490039  RH  094%=      5-min Rain = 0
KWE2 221527Z 00006KT 05/04 A302 RMK A01 T00500039  RH  093%=      5-min Rain = 0
KWE2 221528Z 00007KT 05/04 A302 RMK A01 T00490039  RH  093%=      5-min Rain = 0
KWE2 221529Z 36007KT 05/04 A302 RMK A01 T00490037  RH  092%=      5-min Rain = 0
KWE2 221530Z 34007KT 05/04 A3019 RMK A01 T00490037  RH  092%=      5-min Rain = 0
KWE2 221531Z 35007KT 05/04 A3019 RMK A01 T00490037  RH  092%=      5-min Rain = 0
KWE2 221532Z 36006KT 05/04 A3019 RMK A01 T00480035  RH  091%=      5-min Rain = 0
KWE2 221533Z 35006KT 05/04 A3019 RMK A01 T00480035  RH  091%=      5-min Rain = 0
KWE2 221534Z 34006KT 05/04 A3019 RMK A01 T00480036  RH  092%=      5-min Rain = 0
KWE2 221535Z 34007KT 05/04 A3019 RMK A01 T00490036  RH  092%=      5-min Rain = 0
KWE2 221536Z 34007KT 05/04 A3019 RMK A01 T00490035  RH  091%=      5-min Rain = 0
KWE2 221537Z 00006KT 05/04 A3019 RMK A01 T00490036  RH  091%=      5-min Rain = 0
KWE2 221538Z 35006KT 05/03 A3019 RMK A01 T00490034  RH  090%=      5-min Rain = 0
KWE2 221539Z 36006KT 05/04 A302 RMK A01 T00490035  RH  090%=      5-min Rain = 0
KWE2 221540Z 00005KT 05/03 A302 RMK A01 T00490034  RH  090%=      5-min Rain = 0
KWE2 221541Z 00006KT 05/04 A302 RMK A01 T00490035  RH  091%=      5-min Rain = 0
KWE2 221542Z 01006KT 05/04 A302 RMK A01 T00490035  RH  091%=      5-min Rain = 0
KWE2 221543Z 01006KT 05/04 A302 RMK A01 T00490037  RH  092%=      5-min Rain = 0
KWE2 221544Z 01006KT 05/04 A302 RMK A01 T00490038  RH  092%=      5-min Rain = 0
KWE2 221545Z 01006KT 05/04 A302 RMK A01 T00490036  RH  091%=      5-min Rain = 0
KWE2 221546Z 01007KT 05/04 A302 RMK A01 T00490035  RH  091%=      5-min Rain = 0
KWE2 221547Z 00007KT 05/04 A302 RMK A01 T00490035  RH  091%=      5-min Rain = 0
KWE2 221548Z 36006KT 05/04 A302 RMK A01 T00490036  RH  091%=      5-min Rain = 0
KWE2 221549Z 00006KT 05/04 A302 RMK A01 T00490037  RH  092%=      5-min Rain = 0
KWE2 221550Z 35005KT 05/04 A302 RMK A01 T00490036  RH  091%=      5-min Rain = 0
KWE2 221551Z 35006KT 05/04 A302 RMK A01 T00500037  RH  091%=      5-min Rain = 0
KWE2 221552Z 35006KT 05/04 A302 RMK A01 T00500037  RH  091%=      5-min Rain = 0
KWE2 221553Z 34006KT 05/04 A302 RMK A01 T00500039  RH  092%=      5-min Rain = 0
KWE2 221554Z 35005KT 05/04 A302 RMK A01 T00500035  RH  090%=      5-min Rain = 0
KWE2 221555Z 34005KT 05/04 A302 RMK A01 T00500036  RH  090%=      5-min Rain = 0
KWE2 221556Z 34005KT 05/04 A302 RMK A01 T00500035  RH  090%=      5-min Rain = 0
KWE2 221557Z 34005KT 05/04 A302 RMK A01 T00500035  RH  090%=      5-min Rain = 0
KWE2 221558Z 33006KT 05/04 A302 RMK A01 T00500036  RH  090%=      5-min Rain = 0
KWE2 221559Z 34008KT 05/04 A302 RMK A01 T00510037  RH  091%=      5-min Rain = 0
KWE2 221600Z 34008KT 05/03 A302 RMK A01 T00510034  RH  089%=      5-min Rain = 0
KWE2 221601Z 36008KT 05/04 A302 RMK A01 T00500035  RH  090%=      5-min Rain = 0
KWE2 221602Z 35007KT 05/04 A302 RMK A01 T00500035  RH  090%=      5-min Rain = 0
KWE2 221603Z 35006KT 05/04 A302 RMK A01 T00500036  RH  091%=      5-min Rain = 0
KWE2 221604Z 34006KT 05/04 A302 RMK A01 T00500035  RH  090%=      5-min Rain = 0
KWE2 221605Z 35007KT 05/04 A302 RMK A01 T00500036  RH  091%=      5-min Rain = 0
KWE2 221606Z 35007KT 05/04 A302 RMK A01 T00500036  RH  091%=      5-min Rain = 0
KWE2 221607Z 34006KT 05/03 A302 RMK A01 T00500034  RH  089%=      5-min Rain = 0
KWE2 221608Z 35007KT 05/04 A302 RMK A01 T00500035  RH  090%=      5-min Rain = 0
KWE2 221609Z 36007KT 05/03 A302 RMK A01 T00500034  RH  090%=      5-min Rain = 0
KWE2 221610Z 00007KT 05/03 A302 RMK A01 T00500034  RH  090%=      5-min Rain = 0
KWE2 221611Z 34006KT 05/04 A302 RMK A01 T00500037  RH  091%=      5-min Rain = 0
KWE2 221612Z 33007KT 05/04 A302 RMK A01 T00510036  RH  090%=      5-min Rain = 0
KWE2 221613Z 35005KT 05/03 A302 RMK A01 T00510034  RH  089%=      5-min Rain = 0
KWE2 221614Z 35007KT 05/04 A302 RMK A01 T00510036  RH  091%=      5-min Rain = 0
KWE2 221615Z 35007KT 05/04 A302 RMK A01 T00510036  RH  090%=      5-min Rain = 0
KWE2 221616Z 34006KT 05/04 A302 RMK A01 T00510036  RH  090%=      5-min Rain = 0
KWE2 221617Z 35006KT 05/04 A302 RMK A01 T00510036  RH  090%=      5-min Rain = 0
KWE2 221618Z 34007KT 05/04 A302 RMK A01 T00510039  RH  092%=      5-min Rain = 0
KWE2 221619Z 33007KT 05/04 A302 RMK A01 T00520037  RH  090%=      5-min Rain = 0
KWE2 221620Z 34008KT 05/04 A302 RMK A01 T00520037  RH  090%=      5-min Rain = 0
KWE2 221621Z 35007KT 05/04 A302 RMK A01 T00520039  RH  091%=      5-min Rain = 0
KWE2 221622Z 35007KT 05/04 A302 RMK A01 T00520037  RH  090%=      5-min Rain = 0
KWE2 221623Z 35008KT 05/04 A302 RMK A01 T00520036  RH  090%=      5-min Rain = 0
KWE2 221624Z 36007KT 05/03 A302 RMK A01 T00520034  RH  089%=      5-min Rain = 0
KWE2 221625Z 34007KT 05/04 A302 RMK A01 T00510036  RH  090%=      5-min Rain = 0
KWE2 221626Z 34007KT 05/04 A302 RMK A01 T00510036  RH  090%=      5-min Rain = 0
KWE2 221627Z 34005KT 05/04 A302 RMK A01 T00510035  RH  089%=      5-min Rain = 0
KWE2 221628Z 33005KT 05/04 A302 RMK A01 T00520038  RH  091%=      5-min Rain = 0
KWE2 221629Z 34005KT 05/04 A302 RMK A01 T00520040  RH  091%=      5-min Rain = 0
KWE2 221630Z 33007KT 05/04 A302 RMK A01 T00530039  RH  090%=      5-min Rain = 0
KWE2 221631Z 33006KT 05/04 A302 RMK A01 T00530035  RH  088%=      5-min Rain = 0
KWE2 221632Z 33005KT 05/04 A302 RMK A01 T00530038  RH  090%=      5-min Rain = 0
KWE2 221633Z 34007KT 05/04 A302 RMK A01 T00540039  RH  090%=      5-min Rain = 0
KWE2 221634Z 34008KT 05/04 A302 RMK A01 T00540038  RH  089%=      5-min Rain = 0
KWE2 221635Z 33007KT 05/04 A302 RMK A01 T00540037  RH  089%=      5-min Rain = 0
KWE2 221636Z 33007KT 05/04 A302 RMK A01 T00530037  RH  089%=      5-min Rain = 0
KWE2 221637Z 34007KT 05/03 A302 RMK A01 T00520034  RH  088%=      5-min Rain = 0
KWE2 221638Z 33006KT 05/04 A302 RMK A01 T00520035  RH  089%=      5-min Rain = 0
KWE2 221639Z 34008KT 05/04 A302 RMK A01 T00520036  RH  089%=      5-min Rain = 0
KWE2 221640Z 34007KT 05/03 A302 RMK A01 T00510034  RH  088%=      5-min Rain = 0
KWE2 221641Z 35007KT 05/04 A302 RMK A01 T00510035  RH  089%=      5-min Rain = 0
KWE2 221642Z 35007KT 05/04 A302 RMK A01 T00520036  RH  089%=      5-min Rain = 0
KWE2 221643Z 33006KT 05/04 A302 RMK A01 T00520038  RH  090%=      5-min Rain = 0
KWE2 221644Z 32007KT 05/04 A302 RMK A01 T00530038  RH  090%=      5-min Rain = 0
KWE2 221645Z 32007KT 06/04 A302 RMK A01 T00550038  RH  089%=      5-min Rain = 0
KWE2 221646Z 33006KT 06/04 A302 RMK A01 T00550035  RH  087%=      5-min Rain = 0
KWE2 221647Z 32007KT 05/04 A302 RMK A01 T00540037  RH  088%=      5-min Rain = 0
KWE2 221648Z 33007KT 06/04 A302 RMK A01 T00550036  RH  088%=      5-min Rain = 0
KWE2 221649Z 34005KT 05/04 A302 RMK A01 T00540036  RH  088%=      5-min Rain = 0
KWE2 221650Z 33008KT 05/04 A302 RMK A01 T00540037  RH  089%=      5-min Rain = 0
KWE2 221651Z 33008KT 06/04 A302 RMK A01 T00550035  RH  087%=      5-min Rain = 0
KWE2 221652Z 34008KT 06/04 A302 RMK A01 T00550037  RH  089%=      5-min Rain = 0
KWE2 221653Z 34007KT 06/04 A302 RMK A01 T00550037  RH  088%=      5-min Rain = 0
KWE2 221654Z 35008KT 06/04 A302 RMK A01 T00550036  RH  087%=      5-min Rain = 0
KWE2 221655Z 33006KT 06/04 A302 RMK A01 T00550036  RH  088%=      5-min Rain = 0
KWE2 221656Z 33006KT 06/04 A302 RMK A01 T00550038  RH  089%=      5-min Rain = 0
KWE2 221657Z 33008KT 06/04 A302 RMK A01 T00560037  RH  088%=      5-min Rain = 0
KWE2 221658Z 33008KT 06/04 A302 RMK A01 T00560036  RH  087%=      5-min Rain = 0
KWE2 221659Z 32005KT 06/04 A302 RMK A01 T00560037  RH  088%=      5-min Rain = 0
KWE2 221700Z 32005KT 06/04 A302 RMK A01 T00560038  RH  088%=      5-min Rain = 0
KWE2 221701Z 33007KT 06/04 A302 RMK A01 T00560038  RH  088%=      5-min Rain = 0
KWE2 221702Z 34006KT 06/04 A302 RMK A01 T00570038  RH  088%=      5-min Rain = 0
KWE2 221703Z 31006KT 06/04 A302 RMK A01 T00570038  RH  087%=      5-min Rain = 0
KWE2 221704Z 33006KT 06/04 A302 RMK A01 T00570036  RH  087%=      5-min Rain = 0
KWE2 221705Z 33007KT 06/04 A302 RMK A01 T00570037  RH  087%=      5-min Rain = 0
KWE2 221706Z 34005KT 06/04 A302 RMK A01 T00560037  RH  087%=      5-min Rain = 0
KWE2 221707Z 36006KT 06/04 A302 RMK A01 T00560037  RH  087%=      5-min Rain = 0
KWE2 221708Z 35007KT 06/04 A302 RMK A01 T00560036  RH  087%=      5-min Rain = 0
KWE2 221709Z 32007KT 06/04 A302 RMK A01 T00560036  RH  087%=      5-min Rain = 0
KWE2 221710Z 33009KT 06/04 A302 RMK A01 T00560037  RH  088%=      5-min Rain = 0
KWE2 221711Z 33006KT 06/03 A3019 RMK A01 T00560034  RH  086%=      5-min Rain = 0
KWE2 221712Z 33004KT 06/04 A3019 RMK A01 T00550035  RH  087%=      5-min Rain = 0
KWE2 221713Z 31007KT 06/04 A3019 RMK A01 T00560040  RH  089%=      5-min Rain = 0
KWE2 221714Z 31006KT 06/04 A3019 RMK A01 T00570038  RH  088%=      5-min Rain = 0
KWE2 221715Z 32006KT 06/04 A3019 RMK A01 T00570036  RH  086%=      5-min Rain = 0
KWE2 221716Z 32008KT 06/04 A3019 RMK A01 T00560036  RH  087%=      5-min Rain = 0
KWE2 221717Z 32007KT 06/04 A3019 RMK A01 T00560035  RH  086%=      5-min Rain = 0
KWE2 221718Z 31007KT 06/04 A3019 RMK A01 T00560035  RH  086%=      5-min Rain = 0
KWE2 221719Z 31006KT 06/04 A3019 RMK A01 T00560036  RH  087%=      5-min Rain = 0
KWE2 221720Z 32008KT 06/04 A3019 RMK A01 T00570039  RH  088%=      5-min Rain = 0
KWE2 221721Z 32007KT 06/04 A3019 RMK A01 T00580036  RH  086%=      5-min Rain = 0
KWE2 221722Z 32007KT 06/04 A3019 RMK A01 T00580035  RH  085%=      5-min Rain = 0
KWE2 221723Z 32008KT 06/03 A3019 RMK A01 T00580034  RH  085%=      5-min Rain = 0
KWE2 221724Z 31006KT 06/03 A3019 RMK A01 T00580034  RH  085%=      5-min Rain = 0
KWE2 221725Z 31006KT 06/03 A3019 RMK A01 T00580034  RH  084%=      5-min Rain = 0
KWE2 221726Z 32007KT 06/03 A3019 RMK A01 T00580033  RH  084%=      5-min Rain = 0
KWE2 221727Z 32006KT 06/03 A3019 RMK A01 T00580033  RH  084%=      5-min Rain = 0
KWE2 221728Z 31006KT 06/03 A3018 RMK A01 T00580034  RH  085%=      5-min Rain = 0
KWE2 221729Z 29005KT 06/03 A3018 RMK A01 T00590033  RH  083%=      5-min Rain = 0
KWE2 221730Z 31006KT 06/03 A3018 RMK A01 T00590034  RH  084%=      5-min Rain = 0
KWE2 221731Z 32007KT 06/03 A3018 RMK A01 T00590033  RH  084%=      5-min Rain = 0
KWE2 221732Z 32006KT 06/04 A3018 RMK A01 T00600036  RH  085%=      5-min Rain = 0
KWE2 221733Z 31005KT 06/04 A3018 RMK A01 T00610035  RH  083%=      5-min Rain = 0
KWE2 221734Z 34007KT 06/03 A3018 RMK A01 T00610034  RH  083%=      5-min Rain = 0
KWE2 221735Z 33008KT 06/03 A3018 RMK A01 T00610032  RH  081%=      5-min Rain = 0
KWE2 221736Z 32007KT 06/03 A3018 RMK A01 T00600031  RH  081%=      5-min Rain = 0
KWE2 221737Z 33007KT 06/03 A3018 RMK A01 T00610033  RH  083%=      5-min Rain = 0
KWE2 221738Z 33005KT 06/03 A3018 RMK A01 T00610033  RH  082%=      5-min Rain = 0
KWE2 221739Z 33005KT 06/04 A3018 RMK A01 T00630037  RH  083%=      5-min Rain = 0
KWE2 221740Z 34005KT 06/04 A3017 RMK A01 T00640035  RH  082%=      5-min Rain = 0
KWE2 221741Z 32006KT 07/04 A3017 RMK A01 T00650037  RH  083%=      5-min Rain = 0
KWE2 221742Z 33008KT 07/04 A3017 RMK A01 T00660037  RH  082%=      5-min Rain = 0
KWE2 221743Z 35005KT 07/03 A3017 RMK A01 T00660034  RH  080%=      5-min Rain = 0
KWE2 221744Z 32008KT 07/04 A3017 RMK A01 T00660040  RH  084%=      5-min Rain = 0
KWE2 221745Z 32008KT 07/04 A3017 RMK A01 T00670036  RH  080%=      5-min Rain = 0
KWE2 221746Z 33008KT 07/03 A3017 RMK A01 T00670034  RH  080%=      5-min Rain = 0
KWE2 221747Z 33008KT 07/03 A3017 RMK A01 T00650033  RH  080%=      5-min Rain = 0
KWE2 221748Z 34007KT 07/04 A3017 RMK A01 T00650035  RH  081%=      5-min Rain = 0
KWE2 221749Z 34007KT 07/04 A3017 RMK A01 T00660038  RH  082%=      5-min Rain = 0
KWE2 221750Z 34008KT 07/04 A3017 RMK A01 T00680040  RH  082%=      5-min Rain = 0
KWE2 221751Z 36009KT 07/04 A3017 RMK A01 T00690038  RH  081%=      5-min Rain = 0
KWE2 221752Z 00008KT 07/03 A3017 RMK A01 T00670032  RH  079%=      5-min Rain = 0
KWE2 221753Z 35008KT 07/03 A3017 RMK A01 T00660034  RH  080%=      5-min Rain = 0
KWE2 221754Z 34009KT 07/04 A3016 RMK A01 T00660035  RH  081%=      5-min Rain = 0
KWE2 221755Z 36008KT 07/03 A3016 RMK A01 T00660034  RH  080%=      5-min Rain = 0
KWE2 221756Z 35008KT 07/04 A3017 RMK A01 T00660035  RH  081%=      5-min Rain = 0
KWE2 221757Z 35007KT 07/04 A3017 RMK A01 T00660035  RH  081%=      5-min Rain = 0
KWE2 221758Z 35006KT 07/04 A3016 RMK A01 T00660036  RH  081%=      5-min Rain = 0
KWE2 221759Z 35008KT 07/04 A3016 RMK A01 T00670035  RH  080%=      5-min Rain = 0
KWE2 221800Z 34010KT 07/04 A3016 RMK A01 T00660035  RH  080%=      5-min Rain = 0
KWE2 221801Z 33008KT 07/04 A3016 RMK A01 T00660035  RH  081%=      5-min Rain = 0
KWE2 221802Z 32006KT 07/03 A3016 RMK A01 T00660032  RH  079%=      5-min Rain = 0
KWE2 221803Z 33007KT 07/03 A3016 RMK A01 T00650031  RH  079%=      5-min Rain = 0
KWE2 221804Z 34007KT 06/03 A3016 RMK A01 T00640033  RH  080%=      5-min Rain = 0
KWE2 221805Z 34008KT 07/04 A3016 RMK A01 T00660037  RH  082%=      5-min Rain = 0
KWE2 221806Z 33008KT 07/04 A3016 RMK A01 T00670035  RH  080%=      5-min Rain = 0
KWE2 221807Z 33006KT 07/04 A3016 RMK A01 T00660035  RH  080%=      5-min Rain = 0
KWE2 221808Z 34007KT 07/04 A3016 RMK A01 T00670037  RH  082%=      5-min Rain = 0
KWE2 221809Z 34006KT 07/04 A3016 RMK A01 T00680037  RH  081%=      5-min Rain = 0
KWE2 221810Z 33007KT 07/04 A3016 RMK A01 T00680035  RH  080%=      5-min Rain = 0
KWE2 221811Z 31008KT 07/04 A3016 RMK A01 T00670035  RH  080%=      5-min Rain = 0
KWE2 221812Z 32007KT 07/03 A3016 RMK A01 T00670032  RH  078%=      5-min Rain = 0
KWE2 221813Z 33006KT 07/04 A3016 RMK A01 T00670035  RH  080%=      5-min Rain = 0
KWE2 221814Z 33007KT 07/04 A3016 RMK A01 T00680038  RH  081%=      5-min Rain = 0
KWE2 221815Z 34007KT 07/04 A3016 RMK A01 T00690038  RH  080%=      5-min Rain = 0
KWE2 221816Z 33007KT 07/04 A3016 RMK A01 T00690035  RH  079%=      5-min Rain = 0
KWE2 221817Z 33005KT 07/03 A3016 RMK A01 T00680032  RH  078%=      5-min Rain = 0
KWE2 221818Z 32004KT 07/03 A3016 RMK A01 T00660032  RH  079%=      5-min Rain = 0
KWE2 221819Z 35006KT 07/04 A3016 RMK A01 T00660037  RH  082%=      5-min Rain = 0
KWE2 221820Z 32007KT 07/04 A3015 RMK A01 T00680040  RH  082%=      5-min Rain = 0
KWE2 221821Z 33006KT 07/04 A3015 RMK A01 T00690036  RH  079%=      5-min Rain = 0
KWE2 221822Z 32006KT 07/04 A3015 RMK A01 T00680035  RH  079%=      5-min Rain = 0
KWE2 221823Z 31006KT 07/04 A3015 RMK A01 T00690036  RH  080%=      5-min Rain = 0
KWE2 221824Z 32008KT 07/04 A3015 RMK A01 T00690037  RH  080%=      5-min Rain = 0
KWE2 221825Z 32007KT 07/04 A3015 RMK A01 T00700036  RH  079%=      5-min Rain = 0
KWE2 221826Z 33006KT 07/04 A3015 RMK A01 T00710036  RH  079%=      5-min Rain = 0
KWE2 221827Z 34007KT 07/04 A3015 RMK A01 T00710039  RH  080%=      5-min Rain = 0
KWE2 221828Z 33006KT 07/04 A3015 RMK A01 T00710036  RH  078%=      5-min Rain = 0
KWE2 221829Z 33006KT 07/04 A3015 RMK A01 T00710036  RH  079%=      5-min Rain = 0
KWE2 221830Z 31007KT 07/04 A3014 RMK A01 T00720038  RH  079%=      5-min Rain = 0
KWE2 221831Z 31007KT 07/04 A3014 RMK A01 T00730038  RH  079%=      5-min Rain = 0
KWE2 221832Z 33008KT 07/04 A3014 RMK A01 T00730038  RH  078%=      5-min Rain = 0
KWE2 221833Z 34008KT 07/04 A3014 RMK A01 T00730037  RH  078%=      5-min Rain = 0
KWE2 221834Z 33006KT 07/04 A3014 RMK A01 T00730037  RH  078%=      5-min Rain = 0
KWE2 221835Z 32009KT 07/04 A3014 RMK A01 T00730038  RH  078%=      5-min Rain = 0
KWE2 221836Z 32006KT 07/04 A3014 RMK A01 T00720035  RH  077%=      5-min Rain = 0
KWE2 221837Z 32005KT 07/04 A3014 RMK A01 T00720036  RH  078%=      5-min Rain = 0
KWE2 221838Z 32006KT 07/04 A3014 RMK A01 T00730039  RH  079%=      5-min Rain = 0
KWE2 221839Z 33008KT 07/04 A3014 RMK A01 T00740037  RH  078%=      5-min Rain = 0
KWE2 221840Z 32008KT 07/04 A3014 RMK A01 T00740036  RH  077%=      5-min Rain = 0
KWE2 221841Z 31009KT 08/04 A3014 RMK A01 T00750038  RH  078%=      5-min Rain = 0
KWE2 221842Z 31009KT 08/04 A3014 RMK A01 T00750036  RH  076%=      5-min Rain = 0
KWE2 221843Z 29008KT 08/04 A3014 RMK A01 T00750035  RH  076%=      5-min Rain = 0
KWE2 221844Z 28005KT 08/04 A3013 RMK A01 T00750036  RH  076%=      5-min Rain = 0
KWE2 221845Z 29004KT 08/04 A3013 RMK A01 T00750036  RH  077%=      5-min Rain = 0
KWE2 221846Z 29005KT 08/04 A3013 RMK A01 T00760037  RH  077%=      5-min Rain = 0
KWE2 221847Z 27006KT 08/04 A3013 RMK A01 T00760038  RH  077%=      5-min Rain = 0
KWE2 221848Z 29006KT 08/04 A3013 RMK A01 T00770040  RH  077%=      5-min Rain = 0
KWE2 221849Z 33007KT 08/04 A3013 RMK A01 T00790042  RH  078%=      5-min Rain = 0
KWE2 221850Z 33005KT 08/04 A3013 RMK A01 T00780038  RH  076%=      5-min Rain = 0
KWE2 221851Z 31006KT 08/04 A3013 RMK A01 T00770040  RH  078%=      5-min Rain = 0
KWE2 221852Z 32006KT 08/04 A3013 RMK A01 T00780038  RH  076%=      5-min Rain = 0
KWE2 221853Z 31005KT 08/04 A3013 RMK A01 T00770038  RH  076%=      5-min Rain = 0
KWE2 221854Z 30007KT 08/04 A3013 RMK A01 T00790041  RH  077%=      5-min Rain = 0
KWE2 221855Z 30006KT 08/04 A3012 RMK A01 T00800040  RH  076%=      5-min Rain = 0
KWE2 221856Z 29004KT 08/04 A3012 RMK A01 T00800037  RH  074%=      5-min Rain = 0
KWE2 221857Z 29005KT 08/04 A3012 RMK A01 T00800039  RH  076%=      5-min Rain = 0
KWE2 221858Z 30008KT 08/04 A3012 RMK A01 T00800037  RH  074%=      5-min Rain = 0
KWE2 221859Z 29008KT 08/04 A3012 RMK A01 T00810038  RH  074%=      5-min Rain = 0
KWE2 221900Z 29007KT 08/04 A3012 RMK A01 T00800038  RH  075%=      5-min Rain = 0
KWE2 221901Z 29006KT 08/04 A3012 RMK A01 T00790037  RH  075%=      5-min Rain = 0
KWE2 221902Z 28007KT 08/04 A3012 RMK A01 T00790038  RH  076%=      5-min Rain = 0
KWE2 221903Z 27008KT 08/04 A3012 RMK A01 T00800038  RH  075%=      5-min Rain = 0
KWE2 221904Z 28007KT 08/04 A3012 RMK A01 T00800037  RH  074%=      5-min Rain = 0
KWE2 221905Z 28007KT 08/04 A3012 RMK A01 T00800037  RH  074%=      5-min Rain = 0
KWE2 221906Z 27009KT 08/04 A3011 RMK A01 T00820039  RH  074%=      5-min Rain = 0
KWE2 221907Z 29008KT 08/04 A3011 RMK A01 T00840039  RH  074%=      5-min Rain = 0
KWE2 221908Z 29007KT 09/04 A3011 RMK A01 T00850037  RH  072%=      5-min Rain = 0
KWE2 221909Z 28006KT 08/04 A3011 RMK A01 T00830036  RH  072%=      5-min Rain = 0
KWE2 221910Z 29005KT 08/04 A3011 RMK A01 T00830038  RH  074%=      5-min Rain = 0
KWE2 221911Z 28004KT 09/05 A3011 RMK A01 T00860046  RH  076%=      5-min Rain = 0
KWE2 221912Z 29007G13KT 09/04 A3011 RMK A01 T00890044  RH  073%=      5-min Rain = 0
KWE2 221913Z 29008KT 09/04 A3011 RMK A01 T00890041  RH  072%=      5-min Rain = 0
KWE2 221914Z 30008KT 09/04 A3011 RMK A01 T00880039  RH  071%=      5-min Rain = 0
KWE2 221915Z 28007KT 09/04 A3011 RMK A01 T00890040  RH  072%=      5-min Rain = 0
KWE2 221916Z 28008KT 09/04 A3011 RMK A01 T00900043  RH  072%=      5-min Rain = 0
KWE2 221917Z 26010KT 09/04 A3011 RMK A01 T00910040  RH  070%=      5-min Rain = 0
KWE2 221918Z 26008KT 09/04 A3011 RMK A01 T00900039  RH  070%=      5-min Rain = 0
KWE2 221919Z 27009KT 09/04 A3011 RMK A01 T00910042  RH  071%=      5-min Rain = 0
KWE2 221920Z 28009KT 09/04 A3011 RMK A01 T00920041  RH  070%=      5-min Rain = 0
KWE2 221921Z 27008KT 09/04 A301 RMK A01 T00910038  RH  069%=      5-min Rain = 0
KWE2 221922Z 28008KT 09/04 A301 RMK A01 T00890038  RH  071%=      5-min Rain = 0
KWE2 221923Z 29008KT 09/04 A301 RMK A01 T00890041  RH  072%=      5-min Rain = 0
KWE2 221924Z 29008KT 09/04 A301 RMK A01 T00900038  RH  070%=      5-min Rain = 0
KWE2 221925Z 29012KT 09/04 A301 RMK A01 T00910039  RH  070%=      5-min Rain = 0
KWE2 221926Z 27010KT 09/04 A301 RMK A01 T00920040  RH  070%=      5-min Rain = 0
KWE2 221927Z 28008KT 09/04 A301 RMK A01 T00930039  RH  069%=      5-min Rain = 0
KWE2 221928Z 27010KT 09/04 A301 RMK A01 T00930040  RH  070%=      5-min Rain = 0
KWE2 221929Z 27009KT 09/04 A301 RMK A01 T00930040  RH  069%=      5-min Rain = 0
KWE2 221930Z 29009KT 09/04 A301 RMK A01 T00930040  RH  070%=      5-min Rain = 0
KWE2 221931Z 27008KT 09/04 A301 RMK A01 T00930041  RH  070%=      5-min Rain = 0
KWE2 221932Z 25008KT 10/04 A301 RMK A01 T00960044  RH  070%=      5-min Rain = 0
KWE2 221933Z 27010KT 10/04 A301 RMK A01 T00970043  RH  069%=      5-min Rain = 0
KWE2 221934Z 27009KT 10/04 A301 RMK A01 T00960040  RH  068%=      5-min Rain = 0
KWE2 221935Z 26009KT 10/04 A301 RMK A01 T00960040  RH  068%=      5-min Rain = 0
KWE2 221936Z 25011KT 10/04 A301 RMK A01 T00980042  RH  068%=      5-min Rain = 0
KWE2 221937Z 24010KT 10/04 A301 RMK A01 T00980040  RH  067%=      5-min Rain = 0
KWE2 221938Z 26008KT 10/04 A301 RMK A01 T00980040  RH  067%=      5-min Rain = 0
KWE2 221939Z 25009KT 10/04 A301 RMK A01 T00990042  RH  068%=      5-min Rain = 0
KWE2 221940Z 25007KT 10/04 A301 RMK A01 T01000042  RH  067%=      5-min Rain = 0
KWE2 221941Z 24007KT 10/04 A301 RMK A01 T01020044  RH  067%=      5-min Rain = 0
KWE2 221942Z 26008KT 10/04 A301 RMK A01 T01040044  RH  066%=      5-min Rain = 0
KWE2 221943Z 27009KT 10/04 A301 RMK A01 T01040042  RH  065%=      5-min Rain = 0
KWE2 221944Z 27011KT 10/04 A301 RMK A01 T01030041  RH  066%=      5-min Rain = 0
KWE2 221945Z 27009KT 10/04 A3009 RMK A01 T01020042  RH  066%=      5-min Rain = 0
KWE2 221946Z 28010KT 10/04 A301 RMK A01 T01020041  RH  066%=      5-min Rain = 0
KWE2 221947Z 28009KT 10/04 A3009 RMK A01 T01010040  RH  066%=      5-min Rain = 0
KWE2 221948Z 27008KT 10/04 A3009 RMK A01 T01000041  RH  066%=      5-min Rain = 0
KWE2 221949Z 28008KT 10/04 A3009 RMK A01 T00990040  RH  066%=      5-min Rain = 0
KWE2 221950Z 28011KT 10/04 A3009 RMK A01 T01000041  RH  067%=      5-min Rain = 0
KWE2 221951Z 27011KT 10/04 A3009 RMK A01 T01020042  RH  067%=      5-min Rain = 0
KWE2 221952Z 27010KT 10/04 A3009 RMK A01 T01020041  RH  066%=      5-min Rain = 0
KWE2 221953Z 27009KT 10/04 A3009 RMK A01 T01010041  RH  066%=      5-min Rain = 0
KWE2 221954Z 27007KT 10/04 A3009 RMK A01 T01000040  RH  066%=      5-min Rain = 0
KWE2 221955Z 27006KT 10/04 A3009 RMK A01 T01000040  RH  066%=      5-min Rain = 0
KWE2 221956Z 28007KT 10/04 A3009 RMK A01 T01010042  RH  067%=      5-min Rain = 0
KWE2 221957Z 28008KT 10/04 A3009 RMK A01 T01030043  RH  066%=      5-min Rain = 0
KWE2 221958Z 27007KT 10/04 A3009 RMK A01 T01040044  RH  066%=      5-min Rain = 0
KWE2 221959Z 26007KT 11/04 A3009 RMK A01 T01050043  RH  066%=      5-min Rain = 0
KWE2 222000Z 27007KT 10/04 A3009 RMK A01 T01040042  RH  065%=      5-min Rain = 0
KWE2 222001Z 28007KT 10/04 A3009 RMK A01 T01040042  RH  065%=      5-min Rain = 0
KWE2 222002Z 26009KT 10/04 A3009 RMK A01 T01040042  RH  065%=      5-min Rain = 0
KWE2 222003Z 26011KT 11/04 A3009 RMK A01 T01050044  RH  066%=      5-min Rain = 0
KWE2 222004Z 26010KT 11/04 A3009 RMK A01 T01050042  RH  065%=      5-min Rain = 0
KWE2 222005Z 27009KT 11/04 A3008 RMK A01 T01050041  RH  065%=      5-min Rain = 0
KWE2 222006Z 26008KT 10/04 A3008 RMK A01 T01040041  RH  065%=      5-min Rain = 0
KWE2 222007Z 27008KT 10/04 A3008 RMK A01 T01040041  RH  065%=      5-min Rain = 0
KWE2 222008Z 27007KT 10/04 A3008 RMK A01 T01040042  RH  065%=      5-min Rain = 0
KWE2 222009Z 26008KT 10/04 A3008 RMK A01 T01040042  RH  065%=      5-min Rain = 0
KWE2 222010Z 26008KT 10/04 A3008 RMK A01 T01040044  RH  066%=      5-min Rain = 0
KWE2 222011Z 28006KT 11/05 A3008 RMK A01 T01070046  RH  066%=      5-min Rain = 0
KWE2 222012Z 28005KT 11/04 A3008 RMK A01 T01060043  RH  065%=      5-min Rain = 0
KWE2 222013Z 27008KT 11/04 A3008 RMK A01 T01050044  RH  066%=      5-min Rain = 0
KWE2 222014Z 25010G16KT 11/04 A3008 RMK A01 T01060043  RH  065%=      5-min Rain = 0
KWE2 222015Z 26010KT 11/04 A3008 RMK A01 T01080044  RH  065%=      5-min Rain = 0
KWE2 222016Z 25010KT 11/04 A3008 RMK A01 T01070042  RH  064%=      5-min Rain = 0
KWE2 222017Z 26009KT 11/04 A3008 RMK A01 T01070043  RH  064%=      5-min Rain = 0
KWE2 222018Z 26009KT 11/04 A3008 RMK A01 T01070042  RH  064%=      5-min Rain = 0
KWE2 222019Z 26009KT 11/04 A3008 RMK A01 T01060042  RH  065%=      5-min Rain = 0
KWE2 222020Z 27007KT 11/04 A3008 RMK A01 T01050042  RH  065%=      5-min Rain = 0
KWE2 222021Z 28006KT 10/04 A3008 RMK A01 T01040041  RH  065%=      5-min Rain = 0
KWE2 222022Z 25009G14KT 10/04 A3008 RMK A01 T01040041  RH  065%=      5-min Rain = 0
KWE2 222023Z 25010KT 10/04 A3008 RMK A01 T01040041  RH  065%=      5-min Rain = 0
KWE2 222024Z 26009KT 11/04 A3007 RMK A01 T01060042  RH  065%=      5-min Rain = 0
KWE2 222025Z 26007KT 11/04 A3007 RMK A01 T01070044  RH  065%=      5-min Rain = 0
KWE2 222026Z 25007KT 11/04 A3007 RMK A01 T01090044  RH  064%=      5-min Rain = 0
KWE2 222027Z 26008KT 11/04 A3007 RMK A01 T01090044  RH  064%=      5-min Rain = 0
KWE2 222028Z 24008KT 11/04 A3007 RMK A01 T01070043  RH  064%=      5-min Rain = 0
KWE2 222029Z 22007KT 10/04 A3007 RMK A01 T01040042  RH  065%=      5-min Rain = 0
KWE2 222030Z 24007KT 10/04 A3007 RMK A01 T01030041  RH  065%=      5-min Rain = 0
KWE2 222031Z 24005KT 10/04 A3007 RMK A01 T01030043  RH  066%=      5-min Rain = 0
KWE2 222032Z 25007KT 11/05 A3007 RMK A01 T01060045  RH  066%=      5-min Rain = 0
KWE2 222033Z 25006KT 11/04 A3007 RMK A01 T01090044  RH  064%=      5-min Rain = 0
KWE2 222034Z 26009KT 11/04 A3007 RMK A01 T01070042  RH  064%=      5-min Rain = 0
KWE2 222035Z 27010KT 11/04 A3007 RMK A01 T01060043  RH  065%=      5-min Rain = 0
KWE2 222036Z 27007KT 11/04 A3007 RMK A01 T01070043  RH  065%=      5-min Rain = 0
KWE2 222037Z 26007KT 11/04 A3007 RMK A01 T01070043  RH  064%=      5-min Rain = 0
KWE2 222038Z 26005KT 11/04 A3007 RMK A01 T01070043  RH  064%=      5-min Rain = 0
KWE2 222039Z 23009KT 11/04 A3007 RMK A01 T01080043  RH  064%=      5-min Rain = 0
KWE2 222040Z 24008KT 11/04 A3007 RMK A01 T01080044  RH  064%=      5-min Rain = 0
KWE2 222041Z 25008KT 11/04 A3007 RMK A01 T01090043  RH  064%=      5-min Rain = 0
KWE2 222042Z 25008KT 11/04 A3007 RMK A01 T01080042  RH  064%=      5-min Rain = 0
KWE2 222043Z 27006KT 11/04 A3007 RMK A01 T01070043  RH  064%=      5-min Rain = 0
KWE2 222044Z 27010KT 11/05 A3007 RMK A01 T01100046  RH  065%=      5-min Rain = 0
KWE2 222045Z 25011KT 11/04 A3007 RMK A01 T01120044  RH  063%=      5-min Rain = 0
KWE2 222046Z 25011KT 11/04 A3007 RMK A01 T01110042  RH  062%=      5-min Rain = 0
KWE2 222047Z 26009KT 11/04 A3007 RMK A01 T01100042  RH  063%=      5-min Rain = 0
KWE2 222048Z 25009KT 11/04 A3007 RMK A01 T01080041  RH  063%=      5-min Rain = 0
KWE2 222049Z 24009KT 11/04 A3007 RMK A01 T01080044  RH  064%=      5-min Rain = 0
KWE2 222050Z 25009KT 11/05 A3006 RMK A01 T01110045  RH  064%=      5-min Rain = 0
KWE2 222051Z 25009KT 11/04 A3006 RMK A01 T01110044  RH  063%=      5-min Rain = 0
KWE2 222052Z 24008KT 11/05 A3006 RMK A01 T01120045  RH  063%=      5-min Rain = 0
KWE2 222053Z 25008KT 11/04 A3006 RMK A01 T01130044  RH  063%=      5-min Rain = 0
KWE2 222054Z 27007KT 11/05 A3006 RMK A01 T01120045  RH  063%=      5-min Rain = 0
KWE2 222055Z 24007KT 11/05 A3006 RMK A01 T01120045  RH  063%=      5-min Rain = 0
KWE2 222056Z 25007KT 11/05 A3006 RMK A01 T01130045  RH  063%=      5-min Rain = 0
KWE2 222057Z 24009KT 11/04 A3006 RMK A01 T01140044  RH  062%=      5-min Rain = 0
KWE2 222058Z 26010KT 11/04 A3006 RMK A01 T01130044  RH  062%=      5-min Rain = 0
KWE2 222059Z 25008KT 11/05 A3006 RMK A01 T01130046  RH  063%=      5-min Rain = 0
KWE2 222100Z 26007KT 11/05 A3006 RMK A01 T01140046  RH  063%=      5-min Rain = 0
KWE2 222101Z 26007KT 11/05 A3006 RMK A01 T01140046  RH  063%=      5-min Rain = 0
KWE2 222102Z 26007KT 12/05 A3006 RMK A01 T01150046  RH  063%=      5-min Rain = 0
KWE2 222103Z 24007KT 12/05 A3006 RMK A01 T01160045  RH  062%=      5-min Rain = 0
KWE2 222104Z 25009KT 12/04 A3006 RMK A01 T01150044  RH  062%=      5-min Rain = 0
KWE2 222105Z 27009KT 11/04 A3006 RMK A01 T01140044  RH  062%=      5-min Rain = 0
KWE2 222106Z 29009KT 11/04 A3006 RMK A01 T01130044  RH  062%=      5-min Rain = 0
KWE2 222107Z 28010KT 11/04 A3006 RMK A01 T01140043  RH  062%=      5-min Rain = 0
KWE2 222108Z 27008KT 11/04 A3006 RMK A01 T01130043  RH  062%=      5-min Rain = 0
KWE2 222109Z 27009KT 11/04 A3006 RMK A01 T01130044  RH  062%=      5-min Rain = 0
KWE2 222110Z 26009KT 11/04 A3006 RMK A01 T01140044  RH  062%=      5-min Rain = 0
KWE2 222111Z 25007KT 11/04 A3006 RMK A01 T01140044  RH  062%=      5-min Rain = 0
KWE2 222112Z 25007KT 11/04 A3006 RMK A01 T01130044  RH  062%=      5-min Rain = 0
KWE2 222113Z 26007KT 11/04 A3006 RMK A01 T01130044  RH  063%=      5-min Rain = 0
KWE2 222114Z 28006KT 11/04 A3006 RMK A01 T01130044  RH  062%=      5-min Rain = 0
KWE2 222115Z 28005KT 11/04 A3006 RMK A01 T01120044  RH  063%=      5-min Rain = 0
KWE2 222116Z 28004KT 11/05 A3006 RMK A01 T01120046  RH  064%=      5-min Rain = 0
KWE2 222117Z 29006KT 12/05 A3006 RMK A01 T01150048  RH  063%=      5-min Rain = 0
KWE2 222118Z 27007KT 12/05 A3006 RMK A01 T01160047  RH  063%=      5-min Rain = 0
KWE2 222119Z 24007KT 12/05 A3006 RMK A01 T01170046  RH  062%=      5-min Rain = 0
KWE2 222120Z 24007KT 12/05 A3006 RMK A01 T01180047  RH  062%=      5-min Rain = 0
KWE2 222121Z 24006KT 12/04 A3006 RMK A01 T01170043  RH  060%=      5-min Rain = 0
KWE2 222122Z 25007KT 12/04 A3006 RMK A01 T01150044  RH  062%=      5-min Rain = 0
KWE2 222123Z 25007KT 12/05 A3006 RMK A01 T01160045  RH  062%=      5-min Rain = 0
KWE2 222124Z 25008KT 12/04 A3006 RMK A01 T01160044  RH  061%=      5-min Rain = 0
KWE2 222125Z 25010KT 12/04 A3005 RMK A01 T01150044  RH  062%=      5-min Rain = 0
KWE2 222126Z 24010KT 12/05 A3005 RMK A01 T01150045  RH  062%=      5-min Rain = 0
KWE2 222127Z 26010KT 12/05 A3005 RMK A01 T01160046  RH  062%=      5-min Rain = 0
KWE2 222128Z 26005KT 12/05 A3005 RMK A01 T01160045  RH  062%=      5-min Rain = 0
KWE2 222129Z 25007KT 12/05 A3005 RMK A01 T01170045  RH  061%=      5-min Rain = 0
KWE2 222130Z 23009KT 12/05 A3005 RMK A01 T01180046  RH  061%=      5-min Rain = 0
KWE2 222131Z 24006KT 12/05 A3005 RMK A01 T01180045  RH  061%=      5-min Rain = 0
KWE2 222132Z 25007KT 12/05 A3005 RMK A01 T01180046  RH  061%=      5-min Rain = 0
KWE2 222133Z 26007KT 12/05 A3005 RMK A01 T01180045  RH  061%=      5-min Rain = 0
KWE2 222134Z 27007KT 12/05 A3005 RMK A01 T01180045  RH  061%=      5-min Rain = 0
KWE2 222135Z 26009KT 12/05 A3005 RMK A01 T01200045  RH  060%=      5-min Rain = 0
KWE2 222136Z 26007KT 12/04 A3005 RMK A01 T01180043  RH  060%=      5-min Rain = 0
KWE2 222137Z 27005KT 12/04 A3005 RMK A01 T01160043  RH  061%=      5-min Rain = 0
KWE2 222138Z 24006KT 12/04 A3005 RMK A01 T01150044  RH  062%=      5-min Rain = 0
KWE2 222139Z 24008KT 12/04 A3005 RMK A01 T01160044  RH  062%=      5-min Rain = 0
KWE2 222140Z 24006KT 12/05 A3005 RMK A01 T01160045  RH  062%=      5-min Rain = 0
KWE2 222141Z 26007KT 12/05 A3005 RMK A01 T01160045  RH  062%=      5-min Rain = 0
KWE2 222142Z 28007KT 12/05 A3005 RMK A01 T01180046  RH  061%=      5-min Rain = 0
KWE2 222143Z 26007KT 12/05 A3005 RMK A01 T01180046  RH  061%=      5-min Rain = 0
KWE2 222144Z 27006KT 12/05 A3005 RMK A01 T01180046  RH  061%=      5-min Rain = 0
KWE2 222145Z 29007KT 12/05 A3005 RMK A01 T01180046  RH  061%=      5-min Rain = 0
KWE2 222146Z 28006KT 12/05 A3005 RMK A01 T01180047  RH  061%=      5-min Rain = 0
KWE2 222147Z 29006KT 12/05 A3005 RMK A01 T01180046  RH  061%=      5-min Rain = 0
KWE2 222148Z 27005KT 12/05 A3005 RMK A01 T01180046  RH  061%=      5-min Rain = 0
KWE2 222149Z 26007KT 12/05 A3005 RMK A01 T01180046  RH  061%=      5-min Rain = 0
KWE2 222150Z 26006KT 12/05 A3005 RMK A01 T01180046  RH  061%=      5-min Rain = 0
KWE2 222151Z 27004KT 12/05 A3005 RMK A01 T01180046  RH  061%=      5-min Rain = 0
KWE2 222152Z 26005KT 12/05 A3005 RMK A01 T01190047  RH  061%=      5-min Rain = 0
KWE2 222153Z 29005KT 12/05 A3005 RMK A01 T01190046  RH  061%=      5-min Rain = 0
KWE2 222154Z 28007KT 12/05 A3005 RMK A01 T01200047  RH  061%=      5-min Rain = 0
KWE2 222155Z 28007KT 12/05 A3005 RMK A01 T01200046  RH  061%=      5-min Rain = 0
KWE2 222156Z 27004KT 12/05 A3005 RMK A01 T01200046  RH  061%=      5-min Rain = 0
KWE2 222157Z 26006KT 12/05 A3005 RMK A01 T01200047  RH  061%=      5-min Rain = 0
KWE2 222158Z 27006KT 12/05 A3005 RMK A01 T01200046  RH  060%=      5-min Rain = 0
KWE2 222159Z 27007KT 12/05 A3005 RMK A01 T01210047  RH  061%=      5-min Rain = 0
KWE2 222200Z 27007KT 12/05 A3005 RMK A01 T01210047  RH  060%=      5-min Rain = 0
KWE2 222201Z 26008KT 12/05 A3005 RMK A01 T01220048  RH  061%=      5-min Rain = 0
KWE2 222202Z 26006KT 12/05 A3005 RMK A01 T01210046  RH  060%=      5-min Rain = 0
KWE2 222203Z 29007KT 12/05 A3005 RMK A01 T01200046  RH  061%=      5-min Rain = 0
KWE2 222204Z 27005KT 12/05 A3005 RMK A01 T01210047  RH  061%=      5-min Rain = 0
KWE2 222205Z 28008KT 12/05 A3005 RMK A01 T01220048  RH  060%=      5-min Rain = 0
KWE2 222206Z 28009KT 12/05 A3005 RMK A01 T01240047  RH  060%=      5-min Rain = 0
KWE2 222207Z 29008KT 12/05 A3005 RMK A01 T01230045  RH  059%=      5-min Rain = 0
KWE2 222208Z 28007KT 12/05 A3005 RMK A01 T01210045  RH  060%=      5-min Rain = 0
KWE2 222209Z 27007KT 12/05 A3005 RMK A01 T01210046  RH  060%=      5-min Rain = 0
KWE2 222210Z 27006KT 12/05 A3005 RMK A01 T01210046  RH  060%=      5-min Rain = 0
KWE2 222211Z 28007KT 12/05 A3005 RMK A01 T01210046  RH  060%=      5-min Rain = 0
KWE2 222212Z 29009KT 12/05 A3005 RMK A01 T01210045  RH  060%=      5-min Rain = 0
KWE2 222213Z 29009KT 12/05 A3005 RMK A01 T01210045  RH  060%=      5-min Rain = 0
KWE2 222214Z 28009KT 12/05 A3005 RMK A01 T01210045  RH  060%=      5-min Rain = 0
KWE2 222215Z 28009KT 12/05 A3005 RMK A01 T01210045  RH  060%=      5-min Rain = 0
KWE2 222216Z 28007KT 12/05 A3005 RMK A01 T01210045  RH  060%=      5-min Rain = 0
KWE2 222217Z 28005KT 12/05 A3005 RMK A01 T01200046  RH  060%=      5-min Rain = 0
KWE2 222218Z 27005KT 12/05 A3005 RMK A01 T01220047  RH  060%=      5-min Rain = 0
KWE2 222219Z 25007KT 12/05 A3004 RMK A01 T01230046  RH  060%=      5-min Rain = 0
KWE2 222220Z 25006KT 12/05 A3004 RMK A01 T01230046  RH  059%=      5-min Rain = 0
KWE2 222221Z 24007KT 12/05 A3004 RMK A01 T01220045  RH  059%=      5-min Rain = 0
KWE2 222222Z 24007KT 12/05 A3004 RMK A01 T01220046  RH  060%=      5-min Rain = 0
KWE2 222223Z 26005KT 12/05 A3004 RMK A01 T01220046  RH  060%=      5-min Rain = 0
KWE2 222224Z 27006KT 12/05 A3004 RMK A01 T01230047  RH  060%=      5-min Rain = 0
KWE2 222225Z 26007KT 12/05 A3004 RMK A01 T01240045  RH  059%=      5-min Rain = 0
KWE2 222226Z 26007KT 12/05 A3004 RMK A01 T01230045  RH  059%=      5-min Rain = 0
KWE2 222227Z 28006KT 12/05 A3004 RMK A01 T01220045  RH  059%=      5-min Rain = 0
KWE2 222228Z 26004KT 12/05 A3004 RMK A01 T01220045  RH  059%=      5-min Rain = 0
KWE2 222229Z 27003KT 12/05 A3004 RMK A01 T01220045  RH  059%=      5-min Rain = 0
KWE2 222230Z 28006KT 12/05 A3004 RMK A01 T01220046  RH  060%=      5-min Rain = 0
KWE2 222231Z 26007KT 12/05 A3004 RMK A01 T01230046  RH  059%=      5-min Rain = 0
KWE2 222232Z 24006KT 12/05 A3004 RMK A01 T01230045  RH  059%=      5-min Rain = 0
KWE2 222233Z 24006KT 12/05 A3004 RMK A01 T01230045  RH  059%=      5-min Rain = 0
KWE2 222234Z 26006KT 12/05 A3004 RMK A01 T01230045  RH  059%=      5-min Rain = 0
KWE2 222235Z 26008KT 12/05 A3004 RMK A01 T01230045  RH  059%=      5-min Rain = 0
KWE2 222236Z 25007KT 12/05 A3004 RMK A01 T01240045  RH  059%=      5-min Rain = 0
KWE2 222237Z 25007KT 12/05 A3004 RMK A01 T01230045  RH  059%=      5-min Rain = 0
KWE2 222238Z 28006KT 12/05 A3004 RMK A01 T01240045  RH  059%=      5-min Rain = 0
KWE2 222239Z 27007KT 12/05 A3004 RMK A01 T01240045  RH  059%=      5-min Rain = 0
KWE2 222240Z 26006KT 12/05 A3004 RMK A01 T01240045  RH  059%=      5-min Rain = 0
KWE2 222241Z 25006KT 12/05 A3004 RMK A01 T01240045  RH  059%=      5-min Rain = 0
KWE2 222242Z 26006KT 12/04 A3004 RMK A01 T01230044  RH  059%=      5-min Rain = 0
KWE2 222243Z 26005KT 12/05 A3004 RMK A01 T01230045  RH  059%=      5-min Rain = 0
KWE2 222244Z 27005KT 12/05 A3004 RMK A01 T01230045  RH  059%=      5-min Rain = 0
KWE2 222245Z 26005KT 12/05 A3004 RMK A01 T01230045  RH  059%=      5-min Rain = 0
KWE2 222246Z 25006KT 12/05 A3004 RMK A01 T01230046  RH  059%=      5-min Rain = 0
KWE2 222247Z 24004KT 12/05 A3004 RMK A01 T01230045  RH  059%=      5-min Rain = 0
KWE2 222248Z 24004KT 12/05 A3004 RMK A01 T01230045  RH  059%=      5-min Rain = 0
KWE2 222249Z 25004KT 12/05 A3004 RMK A01 T01230045  RH  059%=      5-min Rain = 0
KWE2 222250Z 25004KT 12/05 A3004 RMK A01 T01240046  RH  059%=      5-min Rain = 0
KWE2 222251Z 23005KT 12/05 A3004 RMK A01 T01240046  RH  059%=      5-min Rain = 0
KWE2 222252Z 24004KT 12/05 A3004 RMK A01 T01240045  RH  059%=      5-min Rain = 0
KWE2 222253Z 23005KT 12/05 A3004 RMK A01 T01240045  RH  059%=      5-min Rain = 0
KWE2 222254Z 24003KT 12/05 A3004 RMK A01 T01240045  RH  058%=      5-min Rain = 0
KWE2 222255Z 26004KT 12/05 A3004 RMK A01 T01240045  RH  059%=      5-min Rain = 0
KWE2 222256Z 26004KT 12/05 A3004 RMK A01 T01240045  RH  059%=      5-min Rain = 0
KWE2 222257Z 25005KT 12/05 A3004 RMK A01 T01240046  RH  059%=      5-min Rain = 0
KWE2 222258Z 24004KT 12/05 A3004 RMK A01 T01240046  RH  059%=      5-min Rain = 0
KWE2 222259Z 25004KT 12/05 A3004 RMK A01 T01240046  RH  059%=      5-min Rain = 0
KWE2 222300Z 26004KT 12/05 A3004 RMK A01 T01240046  RH  059%=      5-min Rain = 0
KWE2 222301Z 26004KT 12/05 A3004 RMK A01 T01240046  RH  059%=      5-min Rain = 0
KWE2 222302Z 25004KT 12/05 A3004 RMK A01 T01240046  RH  059%=      5-min Rain = 0
KWE2 222303Z 24004KT 12/05 A3004 RMK A01 T01240046  RH  059%=      5-min Rain = 0
KWE2 222304Z 26005KT 12/05 A3004 RMK A01 T01240046  RH  059%=      5-min Rain = 0
KWE2 222305Z 26006KT 12/05 A3004 RMK A01 T01240046  RH  059%=      5-min Rain = 0
KWE2 222306Z 25006KT 12/05 A3004 RMK A01 T01240046  RH  059%=      5-min Rain = 0
KWE2 222307Z 25004KT 12/05 A3004 RMK A01 T01240046  RH  059%=      5-min Rain = 0
KWE2 222308Z 25006KT 12/05 A3004 RMK A01 T01240046  RH  059%=      5-min Rain = 0
KWE2 222309Z 25006KT 12/05 A3004 RMK A01 T01240045  RH  059%=      5-min Rain = 0
KWE2 222310Z 25005KT 12/05 A3004 RMK A01 T01230046  RH  059%=      5-min Rain = 0
KWE2 222311Z 25005KT 12/05 A3004 RMK A01 T01230046  RH  059%=      5-min Rain = 0
KWE2 222312Z 25005KT 12/05 A3004 RMK A01 T01230046  RH  059%=      5-min Rain = 0
KWE2 222313Z 25004KT 12/05 A3004 RMK A01 T01230045  RH  059%=      5-min Rain = 0
KWE2 222314Z 26004KT 12/05 A3004 RMK A01 T01230046  RH  059%=      5-min Rain = 0
KWE2 222315Z 26004KT 12/05 A3004 RMK A01 T01230046  RH  059%=      5-min Rain = 0
KWE2 222316Z 25004KT 12/05 A3004 RMK A01 T01220045  RH  059%=      5-min Rain = 0
KWE2 222317Z 26003KT 12/05 A3004 RMK A01 T01220046  RH  059%=      5-min Rain = 0
KWE2 222318Z 25003KT 12/05 A3004 RMK A01 T01220046  RH  060%=      5-min Rain = 0
KWE2 222319Z 25003KT 12/05 A3004 RMK A01 T01220047  RH  060%=      5-min Rain = 0
KWE2 222320Z 26003KT 12/05 A3004 RMK A01 T01220047  RH  060%=      5-min Rain = 0
KWE2 222321Z 26003KT 12/05 A3004 RMK A01 T01220047  RH  060%=      5-min Rain = 0
KWE2 222322Z 27002KT 12/05 A3004 RMK A01 T01220047  RH  060%=      5-min Rain = 0
KWE2 222323Z 27002KT 12/05 A3004 RMK A01 T01220047  RH  060%=      5-min Rain = 0
KWE2 222324Z 27002KT 12/05 A3004 RMK A01 T01220049  RH  061%=      5-min Rain = 0
KWE2 222325Z 27002KT 12/05 A3004 RMK A01 T01210048  RH  061%=      5-min Rain = 0
KWE2 222326Z 26002KT 12/05 A3004 RMK A01 T01210047  RH  061%=      5-min Rain = 0
KWE2 222327Z 25001KT 12/05 A3004 RMK A01 T01210047  RH  061%=      5-min Rain = 0
KWE2 222328Z 26002KT 12/05 A3004 RMK A01 T01210047  RH  061%=      5-min Rain = 0
KWE2 222329Z 24002KT 12/05 A3004 RMK A01 T01200048  RH  061%=      5-min Rain = 0
KWE2 222330Z 25002KT 12/05 A3004 RMK A01 T01200047  RH  061%=      5-min Rain = 0
KWE2 222331Z 24002KT 12/05 A3004 RMK A01 T01190047  RH  061%=      5-min Rain = 0
KWE2 222332Z 23001KT 12/05 A3004 RMK A01 T01190048  RH  061%=      5-min Rain = 0
KWE2 222333Z 23001KT 12/05 A3004 RMK A01 T01180047  RH  062%=      5-min Rain = 0
KWE2 222334Z 22001KT 12/05 A3004 RMK A01 T01170048  RH  062%=      5-min Rain = 0
KWE2 222335Z 21001KT 12/05 A3004 RMK A01 T01160047  RH  062%=      5-min Rain = 0
KWE2 222336Z 19002KT 12/05 A3004 RMK A01 T01150047  RH  063%=      5-min Rain = 0
KWE2 222337Z 19003KT 11/05 A3004 RMK A01 T01130047  RH  064%=      5-min Rain = 0
KWE2 222338Z 19002KT 11/05 A3004 RMK A01 T01120046  RH  064%=      5-min Rain = 0
KWE2 222339Z 20002KT 11/05 A3004 RMK A01 T01110046  RH  064%=      5-min Rain = 0
KWE2 222340Z 20002KT 11/05 A3004 RMK A01 T01100046  RH  065%=      5-min Rain = 0
KWE2 222341Z 19002KT 11/05 A3004 RMK A01 T01100046  RH  065%=      5-min Rain = 0
KWE2 222342Z 18003KT 11/05 A3004 RMK A01 T01090046  RH  065%=      5-min Rain = 0
KWE2 222343Z 18002KT 11/05 A3004 RMK A01 T01080046  RH  066%=      5-min Rain = 0
KWE2 222344Z 18002KT 11/05 A3004 RMK A01 T01060046  RH  066%=      5-min Rain = 0
KWE2 222345Z 18003KT 11/05 A3004 RMK A01 T01050046  RH  067%=      5-min Rain = 0
KWE2 222346Z 18002KT 11/05 A3004 RMK A01 T01050046  RH  067%=      5-min Rain = 0
KWE2 222347Z 17002KT 11/05 A3004 RMK A01 T01060046  RH  067%=      5-min Rain = 0
KWE2 222348Z 16002KT 11/05 A3004 RMK A01 T01050046  RH  067%=      5-min Rain = 0
KWE2 222349Z 16002KT 10/05 A3004 RMK A01 T01040046  RH  067%=      5-min Rain = 0
KWE2 222350Z 16002KT 10/05 A3004 RMK A01 T01040046  RH  067%=      5-min Rain = 0
KWE2 222351Z 16002KT 11/05 A3004 RMK A01 T01050047  RH  067%=      5-min Rain = 0
KWE2 222352Z 16002KT 11/05 A3004 RMK A01 T01050046  RH  067%=      5-min Rain = 0
KWE2 222353Z 16002KT 11/05 A3004 RMK A01 T01050046  RH  067%=      5-min Rain = 0
KWE2 222354Z 16002KT 11/05 A3004 RMK A01 T01050046  RH  067%=      5-min Rain = 0
KWE2 222355Z 16002KT 11/05 A3004 RMK A01 T01050046  RH  067%=      5-min Rain = 0
KWE2 222356Z 16002KT 11/05 A3004 RMK A01 T01050046  RH  067%=      5-min Rain = 0
KWE2 222357Z 16002KT 10/05 A3004 RMK A01 T01040046  RH  068%=      5-min Rain = 0
KWE2 222358Z 16002KT 10/05 A3004 RMK A01 T01020046  RH  068%=      5-min Rain = 0
KWE2 222359Z 15002KT 10/05 A3004 RMK A01 T01010046  RH  069%=      5-min Rain = 0
KWE2 230000Z 15003KT 10/05 A3004 RMK A01 T01000045  RH  069%=      5-min Rain = 0
KWE2 230001Z 15003KT 10/05 A3004 RMK A01 T01000046  RH  069%=      5-min Rain = 0
KWE2 230002Z 14003KT 10/05 A3004 RMK A01 T00990046  RH  070%=      5-min Rain = 0
KWE2 230003Z 14003KT 10/05 A3004 RMK A01 T00970045  RH  070%=      5-min Rain = 0
KWE2 230004Z 14003KT 09/04 A3004 RMK A01 T00930044  RH  071%=      5-min Rain = 0
KWE2 230005Z 14003KT 09/04 A3004 RMK A01 T00900044  RH  073%=      5-min Rain = 0
KWE2 230006Z 14003KT 09/04 A3004 RMK A01 T00880044  RH  074%=      5-min Rain = 0
KWE2 230007Z 14004KT 09/04 A3004 RMK A01 T00850043  RH  075%=      5-min Rain = 0
KWE2 230008Z 15004KT 08/04 A3004 RMK A01 T00830043  RH  076%=      5-min Rain = 0
KWE2 230009Z 15004KT 08/04 A3004 RMK A01 T00820043  RH  077%=      5-min Rain = 0
KWE2 230010Z 15004KT 08/04 A3004 RMK A01 T00820044  RH  077%=      5-min Rain = 0
KWE2 230011Z 15004KT 08/04 A3004 RMK A01 T00820044  RH  077%=      5-min Rain = 0
KWE2 230012Z 14004KT 08/05 A3004 RMK A01 T00830045  RH  077%=      5-min Rain = 0
KWE2 230013Z 14004KT 08/04 A3004 RMK A01 T00820044  RH  077%=      5-min Rain = 0
KWE2 230014Z 14004KT 08/04 A3004 RMK A01 T00810043  RH  077%=      5-min Rain = 0
KWE2 230015Z 14004KT 08/04 A3004 RMK A01 T00790042  RH  078%=      5-min Rain = 0
KWE2 230016Z 14004KT 08/04 A3004 RMK A01 T00770042  RH  079%=      5-min Rain = 0
KWE2 230017Z 14004KT 08/04 A3004 RMK A01 T00750042  RH  079%=      5-min Rain = 0
KWE2 230018Z 14004KT 08/04 A3004 RMK A01 T00750043  RH  080%=      5-min Rain = 0
KWE2 230019Z 14004KT 07/04 A3004 RMK A01 T00740043  RH  081%=      5-min Rain = 0
KWE2 230020Z 14004KT 08/04 A3004 RMK A01 T00750043  RH  081%=      5-min Rain = 0
KWE2 230021Z 14004KT 07/04 A3004 RMK A01 T00740043  RH  081%=      5-min Rain = 0
KWE2 230022Z 14004KT 07/04 A3004 RMK A01 T00730043  RH  081%=      5-min Rain = 0
KWE2 230023Z 13004KT 07/05 A3004 RMK A01 T00730045  RH  082%=      5-min Rain = 0
KWE2 230024Z 13004KT 07/05 A3004 RMK A01 T00730046  RH  083%=      5-min Rain = 0
KWE2 230025Z 14004KT 07/05 A3004 RMK A01 T00730046  RH  083%=      5-min Rain = 0
KWE2 230026Z 14004KT 07/05 A3004 RMK A01 T00740045  RH  082%=      5-min Rain = 0
KWE2 230027Z 14004KT 08/05 A3004 RMK A01 T00750045  RH  082%=      5-min Rain = 0
KWE2 230028Z 13004KT 07/04 A3004 RMK A01 T00740044  RH  081%=      5-min Rain = 0
KWE2 230029Z 13004KT 07/04 A3004 RMK A01 T00740043  RH  081%=      5-min Rain = 0
KWE2 230030Z 14004KT 07/04 A3004 RMK A01 T00740043  RH  081%=      5-min Rain = 0
KWE2 230031Z 13004KT 07/04 A3004 RMK A01 T00730042  RH  081%=      5-min Rain = 0
KWE2 230032Z 13004KT 07/04 A3004 RMK A01 T00720042  RH  081%=      5-min Rain = 0
KWE2 230033Z 14004KT 07/04 A3004 RMK A01 T00720043  RH  082%=      5-min Rain = 0
KWE2 230034Z 14004KT 07/04 A3004 RMK A01 T00730044  RH  082%=      5-min Rain = 0
KWE2 230035Z 14004KT 07/04 A3004 RMK A01 T00740044  RH  081%=      5-min Rain = 0
KWE2 230036Z 14004KT 07/04 A3004 RMK A01 T00730042  RH  081%=      5-min Rain = 0
KWE2 230037Z 14004KT 07/04 A3004 RMK A01 T00710041  RH  081%=      5-min Rain = 0
KWE2 230038Z 14004KT 07/04 A3004 RMK A01 T00690041  RH  082%=      5-min Rain = 0
KWE2 230039Z 15005KT 07/04 A3004 RMK A01 T00690042  RH  083%=      5-min Rain = 0
KWE2 230040Z 15005KT 07/04 A3004 RMK A01 T00700043  RH  083%=      5-min Rain = 0
KWE2 230041Z 15005KT 07/04 A3004 RMK A01 T00700042  RH  082%=      5-min Rain = 0
KWE2 230042Z 16006KT 07/04 A3004 RMK A01 T00710043  RH  082%=      5-min Rain = 0
KWE2 230043Z 16005KT 07/04 A3004 RMK A01 T00700043  RH  083%=      5-min Rain = 0
KWE2 230044Z 16006KT 07/04 A3004 RMK A01 T00710043  RH  083%=      5-min Rain = 0
KWE2 230045Z 16006KT 07/04 A3004 RMK A01 T00710043  RH  082%=      5-min Rain = 0
KWE2 230046Z 16006KT 07/04 A3004 RMK A01 T00710043  RH  082%=      5-min Rain = 0
KWE2 230047Z 16006KT 07/04 A3004 RMK A01 T00700043  RH  083%=      5-min Rain = 0
KWE2 230048Z 16006KT 07/04 A3004 RMK A01 T00690043  RH  083%=      5-min Rain = 0
KWE2 230049Z 17006KT 07/04 A3004 RMK A01 T00680043  RH  084%=      5-min Rain = 0
KWE2 230050Z 17006KT 07/04 A3004 RMK A01 T00680043  RH  084%=      5-min Rain = 0
KWE2 230051Z 17006KT 07/04 A3004 RMK A01 T00670043  RH  085%=      5-min Rain = 0
KWE2 230052Z 17006KT 07/04 A3004 RMK A01 T00670044  RH  085%=      5-min Rain = 0
KWE2 230053Z 16006KT 07/05 A3004 RMK A01 T00690045  RH  085%=      5-min Rain = 0
KWE2 230054Z 17006KT 07/05 A3004 RMK A01 T00710046  RH  084%=      5-min Rain = 0
KWE2 230055Z 17006KT 07/05 A3004 RMK A01 T00720045  RH  083%=      5-min Rain = 0
KWE2 230056Z 17006KT 07/04 A3004 RMK A01 T00720044  RH  083%=      5-min Rain = 0
KWE2 230057Z 16005KT 07/04 A3004 RMK A01 T00710043  RH  083%=      5-min Rain = 0
KWE2 230058Z 16005KT 07/04 A3004 RMK A01 T00690042  RH  083%=      5-min Rain = 0
KWE2 230059Z 16005KT 07/04 A3004 RMK A01 T00680042  RH  084%=      5-min Rain = 0
KWE2 230100Z 16005KT 07/04 A3004 RMK A01 T00670042  RH  084%=      5-min Rain = 0
KWE2 230101Z 16005KT 07/04 A3004 RMK A01 T00660042  RH  084%=      5-min Rain = 0
KWE2 230102Z 16005KT 07/04 A3004 RMK A01 T00650043  RH  085%=      5-min Rain = 0
KWE2 230103Z 16005KT 07/04 A3004 RMK A01 T00660043  RH  086%=      5-min Rain = 0
KWE2 230104Z 16005KT 07/04 A3004 RMK A01 T00660043  RH  085%=      5-min Rain = 0
KWE2 230105Z 16005KT 07/04 A3004 RMK A01 T00660043  RH  085%=      5-min Rain = 0
KWE2 230106Z 16005KT 07/04 A3004 RMK A01 T00650042  RH  085%=      5-min Rain = 0
KWE2 230107Z 16006KT 06/04 A3004 RMK A01 T00640041  RH  085%=      5-min Rain = 0
KWE2 230108Z 17006KT 06/04 A3004 RMK A01 T00640042  RH  086%=      5-min Rain = 0
KWE2 230109Z 17006KT 06/04 A3004 RMK A01 T00630041  RH  086%=      5-min Rain = 0
KWE2 230110Z 17006KT 06/04 A3004 RMK A01 T00620041  RH  086%=      5-min Rain = 0
KWE2 230111Z 17006KT 06/04 A3004 RMK A01 T00630041  RH  086%=      5-min Rain = 0
KWE2 230112Z 18006KT 06/04 A3004 RMK A01 T00640041  RH  085%=      5-min Rain = 0
KWE2 230113Z 17006KT 06/04 A3004 RMK A01 T00640041  RH  085%=      5-min Rain = 0
KWE2 230114Z 18006KT 06/04 A3004 RMK A01 T00630040  RH  085%=      5-min Rain = 0
KWE2 230115Z 18006KT 06/04 A3004 RMK A01 T00620040  RH  086%=      5-min Rain = 0
KWE2 230116Z 18006KT 06/04 A3005 RMK A01 T00620040  RH  086%=      5-min Rain = 0
KWE2 230117Z 17006KT 06/04 A3005 RMK A01 T00620040  RH  086%=      5-min Rain = 0
KWE2 230118Z 18006KT 06/04 A3005 RMK A01 T00620040  RH  086%=      5-min Rain = 0
KWE2 230119Z 18006KT 06/04 A3005 RMK A01 T00620041  RH  086%=      5-min Rain = 0
KWE2 230120Z 17006KT 06/04 A3005 RMK A01 T00620041  RH  086%=      5-min Rain = 0
KWE2 230121Z 17006KT 06/04 A3005 RMK A01 T00630041  RH  086%=      5-min Rain = 0
KWE2 230122Z 17006KT 06/04 A3005 RMK A01 T00630041  RH  086%=      5-min Rain = 0
KWE2 230123Z 17006KT 06/04 A3005 RMK A01 T00640042  RH  085%=      5-min Rain = 0
KWE2 230124Z 17007KT 07/04 A3005 RMK A01 T00650042  RH  085%=      5-min Rain = 0
KWE2 230125Z 17008KT 07/04 A3005 RMK A01 T00650042  RH  085%=      5-min Rain = 0
KWE2 230126Z 17010KT 07/04 A3005 RMK A01 T00660042  RH  085%=      5-min Rain = 0
KWE2 230127Z 16009KT 07/05 A3005 RMK A01 T00700047  RH  085%=      5-min Rain = 0
KWE2 230128Z 16008KT 08/05 A3005 RMK A01 T00750048  RH  083%=      5-min Rain = 0
KWE2 230129Z 16009KT 08/05 A3005 RMK A01 T00760048  RH  082%=      5-min Rain = 0
KWE2 230130Z 16009KT 08/05 A3005 RMK A01 T00770048  RH  082%=      5-min Rain = 0
KWE2 230131Z 16008KT 08/05 A3005 RMK A01 T00780049  RH  082%=      5-min Rain = 0
KWE2 230132Z 16008KT 08/05 A3005 RMK A01 T00780049  RH  082%=      5-min Rain = 0
KWE2 230133Z 16008KT 08/05 A3005 RMK A01 T00770049  RH  082%=      5-min Rain = 0
KWE2 230134Z 16008KT 08/05 A3005 RMK A01 T00770049  RH  083%=      5-min Rain = 0
KWE2 230135Z 16008KT 08/05 A3005 RMK A01 T00760049  RH  083%=      5-min Rain = 0
KWE2 230136Z 16007KT 08/05 A3005 RMK A01 T00760049  RH  083%=      5-min Rain = 0
KWE2 230137Z 16007KT 08/05 A3005 RMK A01 T00750049  RH  084%=      5-min Rain = 0
KWE2 230138Z 16007KT 08/05 A3005 RMK A01 T00750050  RH  084%=      5-min Rain = 0
KWE2 230139Z 16007KT 07/05 A3005 RMK A01 T00740050  RH  085%=      5-min Rain = 0
KWE2 230140Z 16007KT 07/05 A3005 RMK A01 T00740050  RH  085%=      5-min Rain = 0
KWE2 230141Z 16007KT 07/05 A3005 RMK A01 T00730050  RH  085%=      5-min Rain = 0
KWE2 230142Z 16006KT 07/05 A3005 RMK A01 T00730050  RH  086%=      5-min Rain = 0
KWE2 230143Z 16006KT 07/05 A3005 RMK A01 T00720050  RH  086%=      5-min Rain = 0
KWE2 230144Z 15006KT 07/05 A3005 RMK A01 T00720050  RH  086%=      5-min Rain = 0
KWE2 230145Z 16007KT 07/05 A3005 RMK A01 T00710050  RH  086%=      5-min Rain = 0
KWE2 230146Z 16007KT 07/05 A3005 RMK A01 T00710050  RH  087%=      5-min Rain = 0
KWE2 230147Z 15007KT 07/05 A3005 RMK A01 T00700051  RH  087%=      5-min Rain = 0
KWE2 230148Z 15007KT 07/05 A3005 RMK A01 T00700051  RH  087%=      5-min Rain = 0
KWE2 230149Z 15008KT 07/05 A3005 RMK A01 T00700051  RH  088%=      5-min Rain = 0
KWE2 230150Z 15007KT 07/05 A3005 RMK A01 T00700051  RH  088%=      5-min Rain = 0
KWE2 230151Z 15008KT 07/05 A3005 RMK A01 T00690051  RH  088%=      5-min Rain = 0
KWE2 230152Z 15008KT 07/05 A3005 RMK A01 T00680051  RH  088%=      5-min Rain = 0
KWE2 230153Z 15007KT 07/05 A3006 RMK A01 T00690051  RH  089%=      5-min Rain = 0
KWE2 230154Z 15007KT 07/05 A3006 RMK A01 T00690052  RH  089%=      5-min Rain = 0
KWE2 230155Z 15006KT 07/05 A3006 RMK A01 T00690051  RH  088%=      5-min Rain = 0
KWE2 230156Z 15007KT 07/05 A3006 RMK A01 T00690051  RH  088%=      5-min Rain = 0
KWE2 230157Z 15008KT 07/05 A3006 RMK A01 T00690051  RH  088%=      5-min Rain = 0
KWE2 230158Z 15008KT 07/05 A3006 RMK A01 T00670050  RH  089%=      5-min Rain = 0
KWE2 230159Z 15008KT 07/05 A3006 RMK A01 T00670050  RH  089%=      5-min Rain = 0
KWE2 230200Z 15008KT 07/05 A3006 RMK A01 T00660051  RH  090%=      5-min Rain = 0
KWE2 230201Z 15008KT 07/05 A3006 RMK A01 T00660051  RH  090%=      5-min Rain = 0
KWE2 230202Z 14009KT 07/05 A3006 RMK A01 T00660051  RH  090%=      5-min Rain = 0
KWE2 230203Z 15009KT 07/05 A3006 RMK A01 T00660051  RH  090%=      5-min Rain = 0
KWE2 230204Z 15009KT 07/05 A3006 RMK A01 T00660051  RH  090%=      5-min Rain = 0
KWE2 230205Z 15009KT 07/05 A3006 RMK A01 T00660051  RH  090%=      5-min Rain = 0
KWE2 230206Z 15008KT 07/05 A3006 RMK A01 T00660051  RH  090%=      5-min Rain = 0
KWE2 230207Z 15007KT 07/05 A3006 RMK A01 T00660051  RH  090%=      5-min Rain = 0
KWE2 230208Z 15006KT 07/05 A3006 RMK A01 T00660050  RH  090%=      5-min Rain = 0
KWE2 230209Z 15006KT 07/05 A3006 RMK A01 T00660050  RH  090%=      5-min Rain = 0
KWE2 230210Z 15006KT 07/05 A3006 RMK A01 T00660050  RH  090%=      5-min Rain = 0
KWE2 230211Z 15006KT 07/05 A3006 RMK A01 T00650050  RH  090%=      5-min Rain = 0
KWE2 230212Z 15007KT 06/05 A3006 RMK A01 T00640050  RH  091%=      5-min Rain = 0
KWE2 230213Z 15007KT 06/05 A3006 RMK A01 T00640051  RH  091%=      5-min Rain = 0
KWE2 230214Z 15007KT 06/05 A3006 RMK A01 T00640052  RH  092%=      5-min Rain = 0
KWE2 230215Z 15007KT 06/05 A3006 RMK A01 T00640052  RH  092%=      5-min Rain = 0
KWE2 230216Z 15006KT 06/05 A3006 RMK A01 T00640052  RH  092%=      5-min Rain = 0
KWE2 230217Z 15007KT 06/05 A3006 RMK A01 T00640052  RH  092%=      5-min Rain = 0
KWE2 230218Z 15008KT 06/05 A3006 RMK A01 T00640052  RH  092%=      5-min Rain = 0
KWE2 230219Z 15008KT 06/05 A3006 RMK A01 T00640053  RH  093%=      5-min Rain = 0
KWE2 230220Z 15008KT 06/05 A3006 RMK A01 T00640053  RH  093%=      5-min Rain = 0
KWE2 230221Z 15008KT 06/05 A3006 RMK A01 T00640053  RH  093%=      5-min Rain = 0
KWE2 230222Z 15009KT 06/05 A3006 RMK A01 T00640053  RH  093%=      5-min Rain = 0
KWE2 230223Z 15009KT 06/05 A3006 RMK A01 T00640054  RH  093%=      5-min Rain = 0
KWE2 230224Z 15008KT 06/05 A3006 RMK A01 T00640054  RH  094%=      5-min Rain = 0
KWE2 230225Z 15008KT 06/05 A3006 RMK A01 T00630054  RH  094%=      5-min Rain = 0
KWE2 230226Z 15008KT 06/05 A3006 RMK A01 T00630054  RH  094%=      5-min Rain = 0
KWE2 230227Z 15008KT 06/05 A3006 RMK A01 T00630054  RH  094%=      5-min Rain = 0
KWE2 230228Z 15007KT 06/05 A3006 RMK A01 T00630054  RH  094%=      5-min Rain = 0
KWE2 230229Z 15008KT 06/05 A3006 RMK A01 T00630054  RH  094%=      5-min Rain = 0
KWE2 230230Z 15007KT 06/05 A3006 RMK A01 T00620054  RH  094%=      5-min Rain = 0
KWE2 230231Z 16008KT 06/05 A3006 RMK A01 T00620054  RH  095%=      5-min Rain = 0
KWE2 230232Z 16008KT 06/06 A3006 RMK A01 T00620055  RH  095%=      5-min Rain = 0
KWE2 230233Z 16008KT 06/06 A3006 RMK A01 T00620055  RH  096%=      5-min Rain = 0
KWE2 230234Z 17008KT 06/06 A3006 RMK A01 T00620055  RH  096%=      5-min Rain = 0
KWE2 230235Z 17009KT 06/06 A3006 RMK A01 T00620056  RH  095%=      5-min Rain = 0
KWE2 230236Z 16008KT 06/06 A3006 RMK A01 T00620055  RH  095%=      5-min Rain = 0
KWE2 230237Z 16008KT 06/06 A3006 RMK A01 T00630055  RH  095%=      5-min Rain = 0
KWE2 230238Z 16007KT 06/05 A3006 RMK A01 T00620054  RH  094%=      5-min Rain = 0
KWE2 230239Z 16008KT 06/05 A3006 RMK A01 T00610053  RH  095%=      5-min Rain = 0
KWE2 230240Z 16007KT 06/05 A3006 RMK A01 T00600053  RH  095%=      5-min Rain = 0
KWE2 230241Z 16007KT 06/05 A3006 RMK A01 T00600053  RH  096%=      5-min Rain = 0
KWE2 230242Z 15007KT 06/05 A3006 RMK A01 T00590054  RH  096%=      5-min Rain = 0
KWE2 230243Z 15006KT 06/05 A3006 RMK A01 T00590054  RH  097%=      5-min Rain = 0
KWE2 230244Z 14006KT 06/06 A3006 RMK A01 T00590055  RH  097%=      5-min Rain = 0
KWE2 230245Z 15006KT 06/06 A3006 RMK A01 T00590055  RH  097%=      5-min Rain = 0
KWE2 230246Z 15005KT 06/06 A3006 RMK A01 T00580055  RH  098%=      5-min Rain = 0
KWE2 230247Z 15005KT 06/06 A3006 RMK A01 T00580056  RH  098%=      5-min Rain = 0
KWE2 230248Z 15006KT 06/06 A3007 RMK A01 T00580056  RH  098%=      5-min Rain = 0
KWE2 230249Z 15007KT 06/06 A3007 RMK A01 T00580056  RH  098%=      5-min Rain = 0
KWE2 230250Z 16006KT 06/06 A3007 RMK A01 T00580056  RH  099%=      5-min Rain = 0
KWE2 230251Z 16007KT 06/06 A3006 RMK A01 T00580056  RH  098%=      5-min Rain = 0
KWE2 230252Z 16008KT 06/06 A3006 RMK A01 T00580056  RH  098%=      5-min Rain = 0
KWE2 230253Z 16007KT 06/06 A3006 RMK A01 T00580056  RH  099%=      5-min Rain = 0
KWE2 230254Z 16007KT 06/06 A3006 RMK A01 T00580056  RH  098%=      5-min Rain = 0
KWE2 230255Z 16006KT 06/06 A3006 RMK A01 T00580055  RH  098%=      5-min Rain = 0
KWE2 230256Z 16007KT 06/06 A3006 RMK A01 T00580056  RH  098%=      5-min Rain = 0
KWE2 230257Z 16006KT 06/06 A3006 RMK A01 T00580056  RH  099%=      5-min Rain = 0
KWE2 230258Z 15006KT 06/06 A3007 RMK A01 T00580056  RH  099%=      5-min Rain = 0
KWE2 230259Z 15005KT 06/06 A3007 RMK A01 T00570055  RH  098%=      5-min Rain = 0
KWE2 230300Z 14005KT 06/06 A3007 RMK A01 T00570055  RH  099%=      5-min Rain = 0
KWE2 230301Z 13005KT 06/06 A3007 RMK A01 T00570055  RH  099%=      5-min Rain = 0
KWE2 230302Z 12005KT 06/05 A3007 RMK A01 T00560054  RH  099%=      5-min Rain = 0
KWE2 230303Z 12005KT 05/05 A3006 RMK A01 T00540053  RH  099%=      5-min Rain = 0
KWE2 230304Z 13005KT 05/05 A3006 RMK A01 T00520052  RH  099%=      5-min Rain = 0
KWE2 230305Z 13005KT 05/05 A3006 RMK A01 T00520052  RH  100%=      5-min Rain = 0
KWE2 230306Z 14006KT 05/05 A3006 RMK A01 T00510051  RH  100%=      5-min Rain = 0
KWE2 230307Z 14006KT 05/05 A3006 RMK A01 T00510051  RH  100%=      5-min Rain = 0
KWE2 230308Z 14006KT 05/05 A3006 RMK A01 T00510051  RH  100%=      5-min Rain = 0
KWE2 230309Z 15006KT 05/05 A3006 RMK A01 T00510051  RH  100%=      5-min Rain = 0
KWE2 230310Z 15007KT 05/05 A3006 RMK A01 T00510051  RH  100%=      5-min Rain = 0
KWE2 230311Z 15006KT 05/05 A3006 RMK A01 T00510051  RH  100%=      5-min Rain = 0
KWE2 230312Z 15006KT 05/05 A3006 RMK A01 T00510051  RH  100%=      5-min Rain = 0
KWE2 230313Z 16006KT 05/05 A3006 RMK A01 T00510051  RH  100%=      5-min Rain = 0
KWE2 230314Z 16007KT 05/05 A3006 RMK A01 T00510051  RH  100%=      5-min Rain = 0
KWE2 230315Z 16007KT 05/05 A3006 RMK A01 T00510052  RH  100%=      5-min Rain = 0
KWE2 230316Z 16006KT 05/05 A3006 RMK A01 T00520052  RH  100%=      5-min Rain = 0
KWE2 230317Z 16007KT 05/05 A3006 RMK A01 T00510052  RH  100%=      5-min Rain = 0
KWE2 230318Z 16006KT 05/05 A3006 RMK A01 T00520052  RH  100%=      5-min Rain = 0
KWE2 230319Z 16006KT 05/05 A3007 RMK A01 T00520052  RH  100%=      5-min Rain = 0
KWE2 230320Z 16006KT 05/05 A3007 RMK A01 T00520052  RH  100%=      5-min Rain = 0
KWE2 230321Z 16005KT 05/05 A3007 RMK A01 T00520052  RH  100%=      5-min Rain = 0
KWE2 230322Z 15005KT 05/05 A3007 RMK A01 T00520052  RH  100%=      5-min Rain = 0
KWE2 230323Z 15004KT 05/05 A3007 RMK A01 T00520052  RH  100%=      5-min Rain = 0
KWE2 230324Z 14003KT 05/05 A3007 RMK A01 T00520052  RH  100%=      5-min Rain = 0
KWE2 230325Z 11003KT 05/05 A3007 RMK A01 T00520052  RH  100%=      5-min Rain = 0
KWE2 230326Z 08003KT 05/05 A3007 RMK A01 T00510051  RH  100%=      5-min Rain = 0
KWE2 230327Z 09004KT 05/05 A3007 RMK A01 T00510051  RH  100%=      5-min Rain = 0
KWE2 230328Z 11004KT 05/05 A3007 RMK A01 T00500050  RH  100%=      5-min Rain = 0
KWE2 230329Z 12002KT 05/05 A3007 RMK A01 T00490049  RH  100%=      5-min Rain = 0
KWE2 230330Z 11002KT 05/05 A3007 RMK A01 T00490049  RH  100%=      5-min Rain = 0
KWE2 230331Z 10002KT 05/05 A3007 RMK A01 T00490049  RH  100%=      5-min Rain = 0
KWE2 230332Z 11001KT 05/05 A3008 RMK A01 T00490049  RH  100%=      5-min Rain = 0
KWE2 230333Z 13002KT 05/05 A3008 RMK A01 T00490049  RH  100%=      5-min Rain = 0
KWE2 230334Z 13002KT 05/05 A3008 RMK A01 T00490049  RH  100%=      5-min Rain = 0
KWE2 230335Z 13002KT 05/05 A3008 RMK A01 T00490049  RH  100%=      5-min Rain = 0
KWE2 230336Z 13002KT 05/05 A3008 RMK A01 T00480048  RH  100%=      5-min Rain = 0
KWE2 230337Z 14002KT 05/05 A3008 RMK A01 T00490049  RH  100%=      5-min Rain = 0
KWE2 230338Z 14003KT 05/05 A3008 RMK A01 T00480048  RH  100%=      5-min Rain = 0
KWE2 230339Z 15003KT 05/05 A3008 RMK A01 T00480048  RH  100%=      5-min Rain = 0
KWE2 230340Z 16003KT 05/05 A3008 RMK A01 T00480048  RH  100%=      5-min Rain = 0
KWE2 230341Z 16003KT 05/05 A3008 RMK A01 T00470047  RH  100%=      5-min Rain = 0
KWE2 230342Z 17003KT 05/05 A3008 RMK A01 T00480048  RH  100%=      5-min Rain = 0
KWE2 230343Z 17004KT 05/05 A3008 RMK A01 T00470048  RH  100%=      5-min Rain = 0
KWE2 230344Z 16004KT 05/05 A3008 RMK A01 T00470047  RH  100%=      5-min Rain = 0
KWE2 230345Z 16004KT 05/05 A3008 RMK A01 T00480048  RH  100%=      5-min Rain = 0
KWE2 230346Z 16004KT 05/05 A3008 RMK A01 T00470047  RH  100%=      5-min Rain = 0
KWE2 230347Z 15004KT 05/05 A3008 RMK A01 T00470047  RH  100%=      5-min Rain = 0
KWE2 230348Z 14004KT 05/05 A3008 RMK A01 T00470047  RH  100%=      5-min Rain = 0
KWE2 230349Z 14004KT 05/05 A3008 RMK A01 T00470047  RH  100%=      5-min Rain = 0
KWE2 230350Z 14003KT 05/05 A3008 RMK A01 T00460046  RH  100%=      5-min Rain = 0
KWE2 230351Z 14004KT 05/05 A3008 RMK A01 T00460046  RH  100%=      5-min Rain = 0
KWE2 230352Z 13004KT 05/05 A3008 RMK A01 T00460046  RH  100%=      5-min Rain = 0
KWE2 230353Z 13004KT 05/05 A3008 RMK A01 T00460046  RH  100%=      5-min Rain = 0
KWE2 230354Z 13004KT 05/05 A3008 RMK A01 T00460046  RH  100%=      5-min Rain = 0
KWE2 230355Z 13004KT 05/05 A3008 RMK A01 T00460046  RH  100%=      5-min Rain = 0
KWE2 230356Z 14003KT 05/05 A3008 RMK A01 T00460046  RH  100%=      5-min Rain = 0
KWE2 230357Z 14003KT 05/05 A3008 RMK A01 T00460046  RH  100%=      5-min Rain = 0
KWE2 230358Z 15003KT 05/05 A3008 RMK A01 T00450045  RH  100%=      5-min Rain = 0
KWE2 230359Z 16004KT 05/05 A3008 RMK A01 T00450045  RH  100%=      5-min Rain = 0
KWE2 230400Z 16004KT 05/05 A3008 RMK A01 T00460046  RH  100%=      5-min Rain = 0
KWE2 230401Z 16004KT 05/05 A3008 RMK A01 T00460046  RH  100%=      5-min Rain = 0
KWE2 230402Z 17004KT 05/05 A3008 RMK A01 T00470047  RH  100%=      5-min Rain = 0
KWE2 230403Z 17004KT 05/05 A3008 RMK A01 T00480048  RH  100%=      5-min Rain = 0
KWE2 230404Z 17004KT 05/05 A3008 RMK A01 T00480048  RH  100%=      5-min Rain = 0
KWE2 230405Z 18004KT 05/05 A3009 RMK A01 T00490049  RH  100%=      5-min Rain = 0
KWE2 230406Z 18004KT 05/05 A3009 RMK A01 T00490049  RH  100%=      5-min Rain = 0
KWE2 230407Z 18004KT 05/05 A3009 RMK A01 T00490049  RH  100%=      5-min Rain = 0
KWE2 230408Z 18004KT 05/05 A3009 RMK A01 T00490049  RH  100%=      5-min Rain = 0
KWE2 230409Z 18005KT 05/05 A3008 RMK A01 T00490049  RH  100%=      5-min Rain = 0
KWE2 230410Z 18005KT 05/05 A3008 RMK A01 T00490049  RH  100%=      5-min Rain = 0
KWE2 230411Z 18005KT 05/05 A3008 RMK A01 T00500050  RH  100%=      5-min Rain = 0
KWE2 230412Z 18005KT 05/05 A3008 RMK A01 T00500050  RH  100%=      5-min Rain = 0
KWE2 230413Z 18004KT 05/05 A3008 RMK A01 T00510051  RH  100%=      5-min Rain = 0
KWE2 230414Z 18004KT 05/05 A3008 RMK A01 T00510051  RH  100%=      5-min Rain = 0
KWE2 230415Z 18004KT 05/05 A3008 RMK A01 T00510051  RH  100%=      5-min Rain = 0
KWE2 230416Z 18004KT 05/05 A3008 RMK A01 T00510051  RH  100%=      5-min Rain = 0
KWE2 230417Z 18004KT 05/05 A3008 RMK A01 T00510051  RH  100%=      5-min Rain = 0
KWE2 230418Z 18003KT 05/05 A3008 RMK A01 T00500050  RH  100%=      5-min Rain = 0
KWE2 230419Z 18003KT 05/05 A3008 RMK A01 T00490049  RH  100%=      5-min Rain = 0
KWE2 230420Z 18003KT 05/05 A3008 RMK A01 T00490049  RH  100%=      5-min Rain = 0
KWE2 230421Z 18003KT 05/05 A3009 RMK A01 T00480048  RH  100%=      5-min Rain = 0
KWE2 230422Z 17003KT 05/05 A3009 RMK A01 T00480048  RH  100%=      5-min Rain = 0
KWE2 230423Z 16003KT 05/05 A3008 RMK A01 T00480048  RH  100%=      5-min Rain = 0
KWE2 230424Z 16003KT 05/05 A3009 RMK A01 T00470047  RH  100%=      5-min Rain = 0
KWE2 230425Z 16003KT 05/05 A3009 RMK A01 T00470047  RH  100%=      5-min Rain = 0
KWE2 230426Z 16002KT 05/05 A3009 RMK A01 T00470047  RH  100%=      5-min Rain = 0
KWE2 230427Z 16002KT 05/05 A3009 RMK A01 T00470047  RH  100%=      5-min Rain = 0
KWE2 230428Z 15002KT 05/05 A3009 RMK A01 T00470047  RH  100%=      5-min Rain = 0
KWE2 230429Z 15001KT 05/05 A3009 RMK A01 T00470047  RH  100%=      5-min Rain = 0
KWE2 230430Z 14001KT 05/05 A3009 RMK A01 T00470047  RH  100%=      5-min Rain = 0
KWE2 230431Z 12001KT 05/05 A3009 RMK A01 T00480048  RH  100%=      5-min Rain = 0
KWE2 230432Z 11002KT 05/05 A3009 RMK A01 T00480048  RH  100%=      5-min Rain = 0
KWE2 230433Z 10002KT 05/05 A3009 RMK A01 T00470047  RH  100%=      5-min Rain = 0
KWE2 230434Z 10002KT 05/05 A3009 RMK A01 T00470047  RH  100%=      5-min Rain = 0
KWE2 230435Z 09002KT 05/05 A3009 RMK A01 T00480048  RH  100%=      5-min Rain = 0
KWE2 230436Z 09003KT 05/05 A3009 RMK A01 T00480048  RH  100%=      5-min Rain = 0
KWE2 230437Z 10003KT 05/05 A3009 RMK A01 T00480048  RH  100%=      5-min Rain = 0
KWE2 230438Z 10003KT 05/05 A3009 RMK A01 T00480048  RH  100%=      5-min Rain = 0
KWE2 230439Z 11003KT 05/05 A3009 RMK A01 T00470047  RH  100%=      5-min Rain = 0
KWE2 230440Z 11003KT 05/05 A3009 RMK A01 T00460046  RH  100%=      5-min Rain = 0
KWE2 230441Z 11004KT 05/05 A3009 RMK A01 T00450045  RH  100%=      5-min Rain = 0
KWE2 230442Z 12004KT 04/04 A3009 RMK A01 T00440044  RH  100%=      5-min Rain = 0
KWE2 230443Z 13004KT 04/04 A3009 RMK A01 T00430043  RH  100%=      5-min Rain = 0
KWE2 230444Z 13004KT 04/04 A3009 RMK A01 T00410041  RH  100%=      5-min Rain = 0
KWE2 230445Z 14004KT 04/04 A3009 RMK A01 T00400040  RH  100%=      5-min Rain = 0
KWE2 230446Z 14003KT 04/04 A3009 RMK A01 T00390040  RH  100%=      5-min Rain = 0
KWE2 230447Z 14004KT 04/04 A3009 RMK A01 T00390039  RH  100%=      5-min Rain = 0
KWE2 230448Z 13004KT 04/04 A3009 RMK A01 T00390039  RH  100%=      5-min Rain = 0
KWE2 230449Z 14005KT 04/04 A3009 RMK A01 T00390039  RH  100%=      5-min Rain = 0
KWE2 230450Z 14005KT 04/04 A3009 RMK A01 T00390039  RH  100%=      5-min Rain = 0
KWE2 230451Z 14005KT 04/04 A3009 RMK A01 T00390039  RH  100%=      5-min Rain = 0
KWE2 230452Z 14005KT 04/04 A3009 RMK A01 T00380038  RH  100%=      5-min Rain = 0
KWE2 230453Z 15005KT 04/04 A3009 RMK A01 T00370037  RH  100%=      5-min Rain = 0
KWE2 230454Z 14005KT 04/04 A3009 RMK A01 T00370037  RH  100%=      5-min Rain = 0
KWE2 230455Z 15005KT 04/04 A3009 RMK A01 T00360036  RH  100%=      5-min Rain = 0
KWE2 230456Z 15005KT 04/04 A3009 RMK A01 T00360036  RH  100%=      5-min Rain = 0
KWE2 230457Z 15005KT 04/04 A3009 RMK A01 T00350035  RH  100%=      5-min Rain = 0
KWE2 230458Z 15005KT 04/04 A3009 RMK A01 T00350035  RH  100%=      5-min Rain = 0
KWE2 230459Z 15006KT 03/03 A3009 RMK A01 T00340034  RH  100%=      5-min Rain = 0
KWE2 230500Z 15006KT 03/03 A3009 RMK A01 T00340034  RH  100%=      5-min Rain = 0
KWE2 230501Z 15005KT 03/03 A3009 RMK A01 T00340034  RH  100%=      5-min Rain = 0
KWE2 230502Z 15005KT 03/03 A3009 RMK A01 T00340034  RH  100%=      5-min Rain = 0
KWE2 230503Z 16005KT 03/03 A3009 RMK A01 T00340034  RH  100%=      5-min Rain = 0
KWE2 230504Z 16004KT 04/04 A3009 RMK A01 T00350035  RH  100%=      5-min Rain = 0
KWE2 230505Z 16004KT 04/04 A3009 RMK A01 T00350035  RH  100%=      5-min Rain = 0
KWE2 230506Z 16004KT 04/04 A3009 RMK A01 T00360036  RH  100%=      5-min Rain = 0
KWE2 230507Z 16004KT 04/04 A3009 RMK A01 T00360036  RH  100%=      5-min Rain = 0
KWE2 230508Z 16004KT 04/04 A3009 RMK A01 T00360037  RH  100%=      5-min Rain = 0
KWE2 230509Z 16004KT 04/04 A3009 RMK A01 T00370037  RH  100%=      5-min Rain = 0
KWE2 230510Z 16004KT 04/04 A3009 RMK A01 T00360036  RH  100%=      5-min Rain = 0
KWE2 230511Z 15004KT 04/04 A3009 RMK A01 T00360036  RH  100%=      5-min Rain = 0
KWE2 230512Z 15004KT 04/04 A3009 RMK A01 T00360036  RH  100%=      5-min Rain = 0
KWE2 230513Z 15005KT 04/04 A3009 RMK A01 T00360036  RH  100%=      5-min Rain = 0
KWE2 230514Z 15005KT 04/04 A3009 RMK A01 T00360036  RH  100%=      5-min Rain = 0
KWE2 230515Z 15005KT 04/04 A3009 RMK A01 T00360036  RH  100%=      5-min Rain = 0
KWE2 230516Z 15005KT 04/04 A3009 RMK A01 T00360036  RH  100%=      5-min Rain = 0
KWE2 230517Z 15006KT 04/04 A3009 RMK A01 T00360036  RH  100%=      5-min Rain = 0
KWE2 230518Z 15006KT 04/04 A3009 RMK A01 T00360036  RH  100%=      5-min Rain = 0
KWE2 230519Z 15006KT 04/04 A3009 RMK A01 T00360036  RH  100%=      5-min Rain = 0
KWE2 230520Z 15006KT 04/04 A3009 RMK A01 T00360036  RH  100%=      5-min Rain = 0
KWE2 230521Z 15006KT 04/04 A3009 RMK A01 T00360036  RH  100%=      5-min Rain = 0
KWE2 230522Z 15006KT 04/04 A3009 RMK A01 T00360036  RH  100%=      5-min Rain = 0
KWE2 230523Z 15006KT 04/04 A3009 RMK A01 T00360036  RH  100%=      5-min Rain = 0
KWE2 230524Z 15006KT 04/04 A3009 RMK A01 T00360036  RH  100%=      5-min Rain = 0
KWE2 230525Z 15006KT 04/04 A3009 RMK A01 T00360036  RH  100%=      5-min Rain = 0
KWE2 230526Z 15006KT 04/04 A3009 RMK A01 T00360036  RH  100%=      5-min Rain = 0
KWE2 230527Z 15006KT 04/04 A3009 RMK A01 T00360036  RH  100%=      5-min Rain = 0
KWE2 230528Z 16007KT 04/04 A3009 RMK A01 T00360036  RH  100%=      5-min Rain = 0
KWE2 230529Z 16007KT 04/04 A3009 RMK A01 T00360036  RH  100%=      5-min Rain = 0
KWE2 230530Z 16007KT 04/04 A3009 RMK A01 T00370037  RH  100%=      5-min Rain = 0
KWE2 230531Z 16007KT 04/04 A3009 RMK A01 T00370037  RH  100%=      5-min Rain = 0
KWE2 230532Z 15007KT 04/04 A3009 RMK A01 T00370037  RH  100%=      5-min Rain = 0
KWE2 230533Z 15007KT 04/04 A3009 RMK A01 T00380038  RH  100%=      5-min Rain = 0
KWE2 230534Z 15007KT 04/04 A3009 RMK A01 T00370037  RH  100%=      5-min Rain = 0
KWE2 230535Z 15007KT 04/04 A3009 RMK A01 T00380038  RH  100%=      5-min Rain = 0
KWE2 230536Z 15007KT 04/04 A3009 RMK A01 T00370037  RH  100%=      5-min Rain = 0
KWE2 230537Z 16006KT 04/04 A3009 RMK A01 T00370037  RH  100%=      5-min Rain = 0
KWE2 230538Z 16006KT 04/04 A3009 RMK A01 T00360036  RH  100%=      5-min Rain = 0
KWE2 230539Z 16006KT 04/04 A3009 RMK A01 T00360036  RH  100%=      5-min Rain = 0
KWE2 230540Z 17006KT 04/04 A3009 RMK A01 T00350035  RH  100%=      5-min Rain = 0
KWE2 230541Z 17006KT 04/04 A3008 RMK A01 T00350035  RH  100%=      5-min Rain = 0
KWE2 230542Z 17007KT 04/04 A3008 RMK A01 T00350035  RH  100%=      5-min Rain = 0
KWE2 230543Z 17007KT 04/04 A3008 RMK A01 T00350035  RH  100%=      5-min Rain = 0
KWE2 230544Z 17007KT 04/04 A3008 RMK A01 T00360036  RH  100%=      5-min Rain = 0
KWE2 230545Z 17007KT 04/04 A3008 RMK A01 T00370037  RH  100%=      5-min Rain = 0
KWE2 230546Z 17006KT 04/04 A3008 RMK A01 T00370037  RH  100%=      5-min Rain = 0
KWE2 230547Z 17006KT 04/04 A3008 RMK A01 T00370037  RH  100%=      5-min Rain = 0
KWE2 230548Z 17005KT 04/04 A3008 RMK A01 T00370037  RH  100%=      5-min Rain = 0
KWE2 230549Z 17006KT 04/04 A3008 RMK A01 T00370037  RH  100%=      5-min Rain = 0
KWE2 230550Z 17005KT 04/04 A3008 RMK A01 T00370037  RH  100%=      5-min Rain = 0
KWE2 230551Z 17006KT 04/04 A3008 RMK A01 T00370037  RH  100%=      5-min Rain = 0
KWE2 230552Z 17006KT 04/04 A3008 RMK A01 T00370037  RH  100%=      5-min Rain = 0
KWE2 230553Z 17006KT 04/04 A3008 RMK A01 T00380038  RH  100%=      5-min Rain = 0
KWE2 230554Z 17007KT 04/04 A3008 RMK A01 T00390039  RH  100%=      5-min Rain = 0
KWE2 230555Z 17007KT 04/04 A3008 RMK A01 T00400040  RH  100%=      5-min Rain = 0
KWE2 230556Z 17007KT 04/04 A3008 RMK A01 T00400040  RH  100%=      5-min Rain = 0
KWE2 230557Z 17007KT 04/04 A3008 RMK A01 T00400040  RH  100%=      5-min Rain = 0
KWE2 230558Z 17006KT 04/04 A3008 RMK A01 T00400041  RH  100%=      5-min Rain = 0
KWE2 230559Z 18007KT 04/04 A3008 RMK A01 T00410041  RH  100%=      5-min Rain = 0

Page generated in 0.1408 seconds.